ECMWFNIL_sfc_dewp_000.txt.gz
Dewpoint
51 50 47 45 45 47 49 48 48 50 47 46 46 49 49 52 51 51 53 53 53 52 50 50 49 49 48 48 47 44 46 50 48 48 48 48 47 48 46 46 46 43
55 54 48 46 45 46 48 51 51 48 48 48 47 47 50 53 53 53 53 54 53 53 51 51 50 49 48 47 47 46 46 48 48 47 49 49 48 48 48 47 46 45
57 57 56 53 48 50 53 55 54 52 48 48 48 49 49 53 54 54 54 54 53 53 52 51 50 48 47 47 47 46 46 47 48 48 48 47 47 47 47 46 46 46
57 57 56 57 55 54 56 56 55 54 52 51 50 49 50 52 54 54 54 54 54 53 53 51 50 49 47 48 48 46 47 46 46 48 47 46 46 45 45 44 43 45
57 57 56 56 56 57 58 56 56 54 54 53 53 52 50 52 54 53 54 54 54 53 53 51 50 49 49 48 48 47 47 46 47 47 45 45 44 44 43 43 43 44
56 53 53 53 56 58 57 56 55 54 54 55 54 52 50 51 51 52 53 53 53 52 52 51 50 49 49 48 48 48 46 45 46 45 44 45 43 42 38 42 42 42
56 57 56 55 56 57 57 57 56 55 54 55 54 53 50 50 50 51 51 52 52 52 50 50 50 49 49 48 47 47 46 46 44 43 42 42 42 44 42 42 37 37
54 56 56 56 57 57 57 55 56 55 56 55 55 54 51 50 48 51 51 51 50 50 50 49 49 47 47 47 46 47 47 47 46 43 41 41 43 39 41 41 43 39
54 53 53 56 56 56 57 55 55 56 55 56 54 54 52 51 49 51 51 50 50 51 50 49 47 47 48 47 47 46 44 46 46 44 44 44 43 40 35 37 41 39
56 55 55 55 56 55 56 56 55 55 55 55 54 53 52 52 49 51 50 50 51 50 49 48 47 48 47 46 45 45 44 44 43 44 44 42 41 39 36 38 38 38
57 56 56 56 56 55 56 55 55 55 55 53 53 53 53 53 51 52 50 49 52 50 49 48 47 47 46 46 46 46 44 44 43 42 44 42 42 41 42 39 37 37
57 56 56 56 56 57 57 55 54 54 54 54 51 51 53 53 53 51 50 49 50 49 48 47 46 46 45 45 45 45 45 45 44 43 42 40 40 38 36 36 38 36
55 55 55 57 57 57 57 55 55 55 53 53 53 52 52 53 53 51 51 50 50 49 48 47 46 46 46 46 45 44 44 44 44 43 41 40 36 33 33 34 35 34
53 54 55 55 55 56 55 56 55 55 54 53 53 53 53 52 50 52 52 50 50 48 48 47 46 46 45 45 44 44 44 44 42 42 38 37 37 32 34 34 34 33
50 51 53 54 54 55 55 55 55 55 55 54 54 54 53 52 51 52 51 49 48 49 47 47 47 47 45 45 44 44 43 42 40 36 36 34 33 32 33 32 31 33
45 49 51 52 53 53 53 55 54 55 55 54 53 53 53 53 52 53 50 51 49 47 47 49 48 47 46 42 42 42 41 37 38 36 32 32 31 31 32 31 31 31
42 44 48 50 51 52 53 53 53 54 54 54 54 53 54 53 52 51 53 55 48 47 48 49 48 46 37 34 34 35 38 38 36 34 32 31 31 31 30 31 32 29
40 41 43 47 50 49 51 52 53 53 53 53 54 54 53 52 52 49 49 48 48 47 49 49 47 37 33 33 33 33 34 35 35 34 32 31 30 29 28 29 30 32
37 38 39 43 47 49 50 52 52 52 52 53 53 53 53 51 50 50 50 49 49 47 47 46 39 33 33 33 33 34 33 34 30 32 31 29 29 30 28 28 29 30
39 38 40 41 45 48 50 50 51 50 52 53 53 52 52 51 51 50 50 49 48 47 47 45 38 34 33 33 33 33 33 34 32 33 31 29 29 29 31 31 32 32
40 40 41 42 43 46 49 49 50 51 51 51 51 52 51 50 50 50 49 48 47 45 44 43 37 34 33 33 33 33 31 33 34 34 32 31 31 31 31 32 32 33
42 42 43 42 44 46 48 49 50 51 50 51 51 51 51 51 49 49 48 47 49 47 45 42 36 33 33 33 33 34 32 31 32 34 33 31 31 32 31 31 31 32
43 43 44 44 45 46 46 49 49 50 50 50 51 51 50 50 49 48 47 47 46 45 44 41 34 33 33 33 33 34 33 30 33 31 31 33 33 33 32 32 32 32
43 42 43 44 45 46 47 49 49 49 49 49 49 50 50 49 48 47 47 46 45 43 43 42 36 33 34 33 34 34 32 31 31 31 32 32 32 33 33 32 33 40
43 44 45 45 45 46 47 48 48 48 48 49 50 50 50 49 47 46 45 46 45 44 42 41 38 36 34 34 34 34 35 31 29 28 30 31 31 31 32 32 32 35
44 44 45 46 46 47 47 47 47 48 49 48 49 49 50 49 46 45 45 45 45 43 42 39 37 36 35 34 34 34 34 35 31 28 29 31 31 29 31 32 31 31

ECMWFNIL_sfc_dewp_003.txt.gz
Dewpoint
50 49 49 47 46 48 50 49 48 50 48 48 48 50 49 52 50 52 53 52 51 50 49 50 49 49 48 48 48 45 46 48 48 48 48 47 46 48 47 45 47 43
53 51 48 49 47 47 49 50 51 50 49 49 49 49 52 53 51 52 53 52 51 51 49 49 49 49 48 46 48 46 45 48 47 46 49 50 49 49 48 49 46 45
53 53 51 50 48 50 51 52 52 51 48 48 51 51 52 54 52 52 53 53 52 51 51 50 49 48 47 47 48 46 47 48 48 48 47 45 48 47 48 47 45 47
53 53 52 51 49 48 50 51 51 51 50 48 49 50 51 54 52 53 53 53 53 52 52 51 50 48 46 46 47 45 46 46 45 48 48 48 47 45 45 44 43 44
55 54 54 53 52 50 50 51 51 51 50 50 50 50 50 54 52 52 53 53 54 52 52 50 49 49 48 48 47 46 47 45 47 48 46 45 46 46 45 45 44 45
55 52 51 50 53 53 51 50 48 49 49 51 51 48 50 52 51 52 52 52 52 52 52 51 49 48 48 48 48 48 46 46 46 46 44 44 44 45 41 44 44 45
54 54 52 49 52 52 53 53 52 50 50 50 49 51 50 51 50 51 50 51 51 51 50 50 50 50 49 49 48 48 47 46 44 43 42 43 43 43 42 43 39 38
55 55 55 58 59 58 57 58 56 52 53 48 49 51 50 49 49 50 50 50 50 49 50 48 49 48 48 49 47 47 47 46 45 43 42 42 43 42 43 43 43 42
56 55 54 56 58 56 56 57 56 58 58 56 49 48 51 49 48 50 50 50 49 50 49 49 48 47 48 47 47 47 45 46 46 43 43 44 43 42 39 41 43 43
56 56 57 55 55 54 54 55 58 57 55 56 57 57 52 50 47 47 49 50 50 49 49 49 48 48 48 46 46 46 45 44 44 44 44 44 43 41 37 40 41 41
56 56 56 58 59 58 58 58 57 56 56 52 55 56 55 58 53 47 49 48 51 50 49 49 49 47 47 46 47 47 46 46 45 43 45 44 43 42 44 41 40 40
57 57 57 57 58 57 58 60 59 57 57 60 54 54 54 54 54 51 48 47 48 49 49 49 49 48 47 46 46 47 47 47 46 45 45 43 43 42 41 40 41 39
55 56 58 58 59 58 58 57 58 58 56 54 53 54 53 53 52 52 55 51 47 49 49 50 49 48 48 48 46 46 47 46 47 46 45 44 43 41 39 39 39 37
50 50 52 54 53 54 56 58 59 57 58 58 58 56 57 53 51 51 56 56 53 49 50 50 50 48 48 47 47 47 47 47 46 47 45 44 44 40 38 37 37 36
47 52 54 53 52 54 54 55 53 55 58 58 58 58 58 56 57 53 54 56 52 51 50 51 50 50 48 48 48 46 47 47 47 45 44 43 40 37 37 35 35 35
41 44 46 48 50 51 51 52 53 54 54 55 56 56 56 56 55 56 55 54 53 52 51 53 51 50 49 45 45 46 47 46 47 45 41 40 39 37 37 35 34 35
39 40 41 41 45 48 49 50 50 52 53 52 53 54 55 54 55 54 55 55 53 53 56 52 52 50 42 41 41 43 46 46 44 42 40 38 37 36 36 35 34 31
37 37 38 40 42 43 46 47 48 49 51 51 52 53 54 55 55 54 54 55 54 53 52 53 52 41 37 36 36 36 39 44 41 40 39 37 36 34 33 34 34 35
37 37 37 38 39 40 43 47 48 48 48 49 51 52 53 52 52 54 53 54 53 53 52 51 43 36 34 35 35 35 35 39 37 38 37 47 35 34 32 31 32 33
38 38 38 38 40 40 40 41 46 48 49 49 49 51 51 51 52 54 53 53 53 52 53 44 42 36 35 35 35 35 34 36 42 38 38 34 34 33 34 34 33 33
39 38 39 40 40 40 41 42 43 47 48 49 48 49 50 51 51 52 53 53 53 52 47 43 40 35 35 35 34 34 33 32 37 38 36 35 35 34 34 35 34 35
39 38 40 39 40 40 40 40 43 47 49 49 48 47 48 49 50 51 52 53 52 49 45 40 37 34 34 33 32 32 31 34 38 38 40 34 34 34 34 34 34 35
38 38 38 39 39 40 40 42 43 45 48 48 48 49 48 48 47 48 50 51 50 48 43 40 35 33 32 32 31 32 29 30 35 35 34 35 36 35 34 34 35 34
37 37 37 38 38 37 39 42 43 45 47 48 47 47 47 48 47 48 50 51 49 47 43 38 34 34 33 32 32 32 30 33 33 34 33 34 34 35 35 34 34 42
37 39 40 40 40 40 42 43 43 45 46 47 46 47 46 46 46 48 49 49 48 48 43 38 35 34 34 33 33 33 33 33 37 34 31 31 32 31 34 34 33 40
36 37 40 41 41 42 43 43 42 43 46 46 46 44 43 43 46 47 48 47 46 43 41 38 34 32 34 33 33 33 32 35 35 33 30 31 32 30 32 32 32 32

ECMWFNIL_sfc_dewp_006.txt.gz
Dewpoint
56 55 55 56 55 56 55 56 56 55 56 55 55 54 54 55 55 57 57 56 55 56 56 55 54 54 55 55 54 49 51 54 53 53 51 52 52 51 51 49 49 50
56 55 54 55 56 55 56 59 57 55 57 57 56 56 55 54 55 57 56 55 54 56 55 55 55 54 54 53 54 52 52 53 52 52 54 53 52 52 52 51 50 53
55 56 54 55 55 57 56 58 59 55 58 58 58 57 56 55 56 57 56 55 55 54 55 55 55 55 54 54 54 53 53 53 53 53 53 52 53 52 51 52 51 49
56 57 55 56 56 58 57 57 59 56 58 56 59 57 56 55 56 57 57 55 56 55 56 55 56 54 52 53 54 53 52 53 53 54 52 52 52 51 51 50 50 50
58 58 58 58 57 59 57 56 57 57 56 55 58 57 56 55 56 56 56 56 56 54 55 55 55 55 54 53 53 52 53 53 53 53 52 52 51 51 51 51 48 49
59 56 57 59 60 61 60 55 57 57 58 55 56 55 57 56 54 54 55 55 56 54 54 53 53 53 54 53 54 51 52 50 50 53 50 50 49 50 46 51 47 48
60 61 60 58 61 60 59 61 59 57 57 57 55 54 56 55 54 54 53 54 54 54 52 52 51 53 52 53 53 52 51 52 49 49 49 48 49 49 48 49 47 46
60 57 61 62 60 59 59 60 62 61 61 61 59 55 56 54 53 54 54 53 52 52 52 51 51 50 51 52 51 52 51 53 48 47 48 46 49 46 48 50 48 47
58 57 61 62 62 61 60 58 59 61 61 61 61 61 58 54 52 54 53 52 52 53 52 51 50 50 51 52 51 51 49 51 51 48 48 50 47 48 44 45 47 48
59 60 61 61 61 62 61 60 61 61 61 60 60 60 60 60 55 51 52 53 52 52 52 52 51 51 51 50 49 49 49 48 48 49 48 49 46 45 43 46 45 47
59 59 61 62 61 61 61 59 58 59 60 58 58 58 59 59 59 58 55 51 53 52 51 51 51 50 49 50 50 51 49 49 48 47 48 48 48 47 49 47 46 47
59 60 59 59 59 59 58 59 58 58 58 58 59 58 58 58 58 58 56 53 51 51 51 51 51 50 49 49 48 49 50 49 49 48 49 48 48 49 47 47 46 46
58 58 59 59 59 59 59 59 59 60 59 59 59 58 58 57 57 56 55 55 55 55 51 51 52 51 50 50 49 48 49 49 50 49 50 49 49 48 47 46 46 45
52 54 58 59 59 58 57 58 58 58 58 59 59 58 58 57 56 56 56 55 53 52 54 55 55 54 53 51 49 48 49 49 50 50 48 49 49 47 47 46 45 45
53 52 57 56 57 58 57 57 57 57 58 57 57 57 57 57 56 57 56 55 55 56 55 55 55 55 54 52 50 48 50 50 50 48 48 48 47 47 46 45 43 43
46 51 52 53 54 55 55 57 58 57 57 57 59 59 58 58 57 57 55 56 55 55 55 57 58 56 53 48 48 49 50 51 52 51 50 48 46 44 44 43 43 43
49 45 51 51 53 55 53 54 52 54 56 55 57 58 58 58 58 57 57 56 55 55 54 56 56 54 48 45 42 44 50 51 50 50 49 48 46 45 43 44 43 39
45 48 49 47 50 50 52 53 53 53 53 55 56 56 58 58 59 57 56 57 56 55 55 57 56 50 46 43 41 42 46 50 50 47 47 46 43 43 41 41 39 40
48 48 47 50 49 50 50 51 51 53 53 54 54 56 57 55 56 56 56 56 56 56 54 49 48 41 41 40 39 41 42 44 44 48 46 46 43 43 43 43 41 42
48 47 48 48 48 49 49 49 50 50 54 55 54 54 54 55 54 55 55 55 56 55 50 46 45 39 37 38 38 38 40 42 43 43 43 42 43 40 42 40 42 42
41 42 48 48 49 49 49 49 50 50 51 54 54 54 54 54 53 53 54 54 54 51 46 45 42 36 36 36 36 37 39 42 44 46 41 41 43 45 44 43 44 45
43 46 49 48 48 48 48 48 49 50 51 54 53 53 53 53 53 53 53 54 54 49 47 43 40 36 36 36 35 34 36 40 44 46 42 46 46 46 45 46 43 42
45 47 48 48 47 47 47 48 49 50 51 52 52 53 52 52 52 52 52 52 50 48 45 41 37 36 35 34 33 33 37 41 45 41 41 42 43 43 39 39 39 39
43 40 46 47 46 45 46 47 48 49 49 51 51 51 51 51 51 51 51 52 49 46 44 41 39 35 33 32 32 32 36 42 42 42 42 41 38 40 41 40 40 45
45 46 47 47 46 47 49 48 49 49 48 51 52 51 51 51 49 49 51 50 48 45 43 40 37 34 33 32 31 31 35 41 42 38 39 38 39 37 38 39 37 41
47 48 46 43 43 49 49 49 49 49 48 47 50 50 49 47 46 48 50 48 44 42 42 40 36 35 35 33 33 32 32 39 39 37 36 35 36 35 41 40 40 36

ECMWFNIL_sfc_dewp_009.txt.gz
Dewpoint
52 51 51 51 51 52 51 52 52 51 50 50 51 51 51 52 53 53 52 51 51 51 50 49 51 50 52 51 51 50 52 51 50 49 50 50 48 47 46 44 45 48
52 52 52 52 52 53 51 52 52 51 51 51 51 52 52 52 53 53 51 51 52 51 51 50 50 50 49 49 48 48 49 48 48 51 48 49 49 49 47 47 47 48
52 52 52 51 51 52 52 52 52 52 51 52 52 52 52 52 54 52 51 50 51 50 50 50 49 51 51 49 49 50 50 48 48 51 51 50 49 48 48 48 47 48
52 52 51 52 52 51 53 53 51 53 53 53 52 52 51 53 54 52 51 55 51 50 50 51 50 51 49 50 51 49 50 51 51 48 48 49 50 49 47 48 47 45
53 51 52 52 53 51 53 52 50 52 53 53 53 52 51 53 53 52 52 52 51 51 51 50 51 50 49 49 49 48 49 49 50 49 48 49 48 48 48 46 45 46
55 52 53 51 55 52 53 51 50 51 51 54 53 52 51 53 53 52 52 53 52 51 51 51 50 50 49 48 49 47 49 48 48 49 49 47 45 46 47 48 43 44
55 55 55 55 56 52 52 52 51 51 50 54 54 52 51 52 53 53 52 53 52 52 51 51 50 50 50 48 50 47 49 47 47 49 48 47 46 44 45 47 45 44
57 57 56 55 54 54 55 56 56 56 56 53 53 53 52 52 53 53 53 53 53 52 51 51 50 50 50 49 50 47 47 50 47 47 48 45 45 43 44 47 45 44
56 58 58 57 56 55 56 57 57 56 55 55 55 55 55 52 53 53 53 52 53 52 52 51 50 50 49 50 49 48 45 49 47 45 46 46 45 43 44 44 42 41
57 58 57 57 57 57 57 56 56 55 54 54 54 56 57 57 53 53 53 52 52 53 52 51 50 50 49 50 49 50 47 48 47 44 45 48 46 44 45 44 43 44
57 58 58 58 57 56 56 56 56 56 55 55 56 57 58 58 57 55 53 53 52 52 52 52 51 50 49 49 49 50 48 48 47 45 46 47 45 44 47 45 44 43
57 58 58 57 56 56 56 56 56 55 55 56 56 56 56 56 57 56 55 54 54 53 52 52 51 50 50 49 49 49 49 48 47 46 47 47 45 45 45 46 44 44
56 56 56 56 57 57 57 57 57 56 56 56 57 57 57 56 56 56 56 56 55 55 53 52 52 51 50 49 49 49 49 48 47 46 46 46 46 46 45 43 44 45
54 54 55 56 56 56 56 56 57 57 56 56 56 55 56 56 56 55 56 55 56 56 56 53 52 51 50 50 49 48 49 48 48 46 47 46 47 46 45 43 43 44
50 51 52 55 56 55 55 55 55 55 56 56 56 55 56 56 55 55 55 55 56 57 56 54 53 53 52 51 50 48 48 48 48 47 47 47 47 45 45 45 43 43
50 50 50 51 52 53 54 54 54 54 54 55 55 55 55 54 54 53 54 55 55 55 55 55 54 54 52 49 49 49 49 49 49 48 47 47 46 44 43 42 42 42
48 50 51 50 50 51 51 54 55 56 55 55 55 55 56 55 55 54 54 54 54 54 54 55 55 55 49 46 45 46 49 50 49 48 48 46 45 42 40 39 40 42
44 44 45 45 47 51 51 52 53 54 54 54 55 56 56 55 55 54 54 54 54 54 54 54 54 51 47 46 44 43 46 50 49 48 48 46 43 42 40 39 38 40
41 41 41 42 44 45 45 45 47 49 50 51 53 55 55 55 56 55 54 54 53 53 52 50 53 50 46 45 44 43 42 47 48 48 46 44 42 41 40 39 38 40
42 42 42 43 44 43 43 43 44 44 48 50 51 52 53 53 54 54 53 51 49 47 44 43 42 39 39 41 42 40 42 45 47 45 43 42 42 41 41 40 41 40
42 42 41 42 41 42 41 41 43 44 46 47 48 48 48 51 51 50 50 50 49 45 42 40 39 37 37 38 39 39 40 42 43 43 41 43 43 44 42 41 43 43
42 41 41 41 41 42 42 42 43 43 43 45 47 47 48 48 48 49 48 48 48 45 41 37 36 36 37 38 38 38 40 43 43 42 42 43 43 42 42 42 41 39
42 41 41 41 41 41 40 41 42 43 42 45 45 46 46 46 45 47 48 48 46 44 40 36 36 35 36 37 37 38 40 41 40 40 39 38 40 42 40 40 40 40
40 41 41 40 40 39 40 41 42 43 42 44 44 45 45 45 47 45 47 48 46 43 39 36 35 34 35 36 37 38 40 40 40 40 39 39 40 41 41 41 42 45
39 41 42 41 40 40 41 41 41 41 42 43 43 44 44 45 44 47 46 44 44 42 42 37 33 33 34 34 36 37 39 38 37 37 37 37 37 37 40 41 38 39
39 40 39 38 39 41 43 43 42 42 40 40 42 43 45 44 43 47 44 41 41 41 40 36 31 31 33 33 35 37 37 36 37 36 38 37 33 30 35 37 36 35

ECMWFNIL_sfc_dewp_012.txt.gz
Dewpoint
52 52 51 52 51 51 51 51 50 48 49 49 48 49 48 48 52 50 50 49 49 48 48 49 50 50 50 50 50 51 50 49 49 49 49 48 45 44 45 45 45 43
53 53 52 52 52 52 51 52 50 49 49 49 49 49 49 51 51 50 49 50 49 48 48 48 49 49 49 49 49 48 48 48 48 50 47 47 46 44 45 46 45 44
53 53 52 51 51 51 52 52 51 49 49 49 50 50 50 52 51 49 49 49 49 48 48 48 49 48 48 48 48 48 47 47 48 49 49 47 47 46 47 46 46 44
54 53 52 51 51 51 52 52 51 50 50 50 50 50 51 52 50 49 49 53 48 48 48 49 49 49 48 48 48 47 47 48 49 49 49 48 48 47 45 46 47 46
54 53 52 51 51 51 52 52 51 51 50 51 51 51 52 52 49 49 50 49 48 48 48 48 49 48 48 48 47 47 48 47 47 46 46 46 46 45 46 46 45 45
55 54 52 51 51 51 52 52 51 51 51 51 51 51 51 51 49 49 50 49 49 49 49 49 48 48 48 48 47 48 48 47 46 46 47 46 45 47 47 45 45 43
55 53 52 51 51 51 52 52 51 52 51 51 51 50 52 51 49 49 50 49 49 50 49 49 49 48 47 48 47 46 47 47 47 47 47 45 45 44 45 43 44 44
54 52 51 51 51 51 51 51 51 52 52 52 51 50 52 51 50 50 50 50 49 49 49 49 49 49 49 48 48 46 46 47 46 48 46 46 44 42 44 46 45 43
55 54 52 51 51 51 52 52 52 52 53 52 51 50 52 52 51 51 51 50 49 49 49 49 49 49 49 47 48 46 46 47 47 46 47 45 44 43 44 44 42 43
56 57 56 55 52 53 54 53 53 53 53 52 51 52 52 52 52 51 51 51 50 50 49 49 49 49 49 48 48 48 45 46 48 45 46 46 45 44 44 43 42 41
55 56 56 56 56 56 54 54 54 54 54 53 54 54 53 53 53 53 52 52 52 51 50 50 49 49 48 48 48 48 47 46 47 46 45 46 46 45 46 43 43 42
53 55 56 56 56 56 55 55 55 54 54 55 55 54 54 54 54 53 53 52 52 52 51 51 50 49 49 48 48 48 48 47 47 46 45 44 46 45 45 44 43 43
54 54 54 55 56 56 56 56 55 55 55 54 54 55 55 55 55 54 54 53 53 53 53 53 52 51 50 49 48 48 48 48 47 47 45 45 46 45 45 45 44 44
54 52 54 55 54 55 56 55 55 55 54 54 55 54 53 54 54 54 54 54 54 54 54 53 53 52 51 50 49 49 48 48 48 47 46 45 46 45 45 45 44 44
52 53 54 55 54 55 54 54 55 55 55 54 54 55 54 54 54 53 53 53 52 53 53 53 53 53 53 52 51 50 49 48 48 47 46 45 46 46 45 43 43 43
53 53 53 54 53 53 53 54 54 54 54 54 54 54 54 53 52 52 51 51 52 52 53 52 52 52 52 49 49 52 52 50 49 48 47 46 46 46 45 43 42 42
50 51 51 52 53 52 52 53 53 53 53 54 54 53 53 51 52 52 51 51 51 50 50 52 53 54 49 46 44 46 50 49 49 49 48 47 46 45 43 42 42 42
49 49 49 49 49 50 51 51 52 53 53 52 51 51 51 51 51 51 51 50 50 50 50 51 51 51 48 46 44 43 46 49 49 49 48 47 46 44 43 41 40 42
44 45 44 43 45 47 47 47 48 49 50 50 50 50 51 51 52 51 51 51 50 51 50 50 50 41 42 45 45 43 42 46 49 49 48 47 46 44 42 40 40 41
42 42 42 42 42 42 42 43 44 46 46 47 48 48 50 51 50 51 51 50 49 49 47 42 41 40 39 41 43 42 42 43 49 48 47 46 45 44 43 40 40 40
42 42 42 42 42 41 40 41 41 42 43 43 46 47 49 50 50 50 50 49 46 43 41 39 38 38 39 40 41 41 40 41 45 46 45 44 44 43 41 42 41 43
41 40 40 40 40 40 40 39 40 41 40 40 44 44 45 46 47 46 46 45 44 41 39 35 36 37 38 38 39 39 41 43 42 43 42 41 42 42 44 44 42 43
42 40 40 40 40 39 38 38 38 39 39 42 42 42 43 43 43 45 44 45 43 40 38 35 34 36 37 38 38 38 40 41 41 41 40 39 39 39 39 40 41 40
42 41 40 40 40 39 38 38 39 40 40 42 40 40 41 43 43 42 44 44 43 40 38 36 33 35 37 38 38 38 39 38 38 39 38 38 39 40 40 41 42 47
41 41 40 40 39 39 39 39 40 40 38 40 41 41 42 41 42 42 42 42 41 39 42 35 33 34 37 37 37 38 39 38 38 37 36 35 35 36 37 36 35 38
40 41 40 40 39 39 39 40 40 40 39 38 39 40 40 40 41 41 40 39 39 38 38 34 32 32 35 37 37 37 37 38 37 35 33 31 32 35 36 34 33 33

ECMWFNIL_sfc_dewp_018.txt.gz
Dewpoint
55 54 53 52 52 52 50 49 49 48 47 46 46 46 47 47 51 48 49 48 49 48 48 49 50 50 50 49 49 48 47 47 47 46 45 45 44 45 45 44 45 46
53 55 55 53 53 52 51 50 50 48 47 47 47 47 48 49 49 49 48 49 49 48 48 48 49 48 48 48 48 47 47 46 46 48 45 44 45 45 45 45 45 45
54 53 53 53 54 52 51 51 50 49 48 48 48 48 49 51 49 48 48 48 48 48 48 48 48 49 48 47 48 47 46 46 46 46 46 44 45 44 45 45 45 45
54 53 53 53 53 53 52 51 49 49 49 48 48 49 50 52 48 48 48 52 48 48 47 48 48 48 47 47 47 46 46 46 46 47 47 47 47 45 45 46 47 46
54 53 54 54 54 54 53 51 50 49 49 49 49 50 52 50 48 48 49 48 47 47 48 48 47 47 48 47 47 46 48 48 47 46 45 45 46 46 46 46 45 45
54 54 54 54 54 54 53 52 51 49 49 49 49 51 50 50 49 48 49 48 47 48 48 48 47 47 47 47 47 47 48 47 47 46 45 45 46 46 44 45 44 43
55 54 55 54 55 55 53 52 51 51 50 50 50 50 50 50 49 48 49 48 47 50 48 48 48 47 48 47 48 47 47 47 46 46 44 45 47 46 45 44 43 42
54 54 54 54 54 53 52 52 52 51 50 50 50 51 50 50 49 49 49 48 47 47 47 47 48 47 47 47 48 47 47 48 46 46 45 45 45 45 44 44 43 43
54 54 53 53 52 51 51 51 51 51 51 50 50 50 51 50 50 49 49 48 48 48 48 48 48 47 47 47 47 47 46 46 47 46 45 45 45 45 44 44 43 44
53 54 54 53 52 51 51 51 52 52 52 51 51 50 51 51 51 50 50 50 49 49 48 48 48 48 48 47 48 47 47 46 46 46 45 45 45 44 44 44 43 44
53 53 53 53 52 52 52 52 53 52 53 52 51 51 52 52 53 52 51 51 51 50 50 49 49 48 48 48 48 48 47 47 47 46 47 46 46 45 46 45 44 43
53 52 53 52 52 52 53 53 54 54 54 54 53 53 53 53 53 53 53 54 53 52 51 50 50 50 49 49 48 48 48 47 48 47 47 47 47 46 46 45 45 44
53 53 53 53 53 53 53 54 54 54 54 54 54 54 53 53 53 53 54 53 53 54 53 53 52 52 52 51 50 49 49 49 48 47 47 47 47 47 46 46 45 44
52 53 53 53 53 53 54 54 54 54 54 54 54 54 54 54 54 53 53 54 54 53 53 53 54 53 53 53 52 51 50 49 49 48 48 47 47 47 47 47 47 45
52 53 53 54 54 54 54 53 54 54 54 54 54 54 54 54 54 54 53 53 53 53 53 53 53 53 54 53 53 53 51 51 49 49 49 48 48 48 48 48 48 47
52 53 53 53 53 53 54 54 53 53 54 54 54 54 54 54 54 53 53 52 52 52 52 53 53 53 52 50 50 53 53 52 50 50 49 48 48 48 48 48 48 47
51 51 51 52 52 52 52 53 53 52 53 53 53 54 54 53 53 52 52 52 52 52 52 52 52 53 48 46 45 46 52 53 51 50 49 49 49 49 48 48 48 47
49 50 50 51 51 52 52 51 51 51 51 51 52 52 52 52 52 52 52 51 51 51 51 52 52 50 46 45 44 44 46 51 51 51 50 50 49 49 48 48 48 48
48 49 50 50 50 50 49 50 50 50 50 50 50 51 50 51 51 52 52 52 51 51 51 51 51 48 44 43 42 41 41 45 50 51 50 50 50 49 49 48 48 47
47 48 48 48 48 48 48 49 49 49 49 49 50 50 50 50 50 50 50 50 50 51 51 50 49 45 40 39 39 39 40 41 48 48 48 48 49 48 48 48 47 46
45 46 47 47 46 46 47 47 48 47 48 49 50 50 50 50 50 49 50 50 49 49 49 48 45 40 38 37 38 39 39 40 46 45 44 43 43 45 46 46 45 45
42 42 42 42 43 44 44 44 43 45 45 45 46 46 46 46 46 47 48 48 48 48 47 45 41 37 37 37 39 39 40 44 43 42 42 41 41 42 42 43 43 43
40 40 40 40 41 41 41 39 39 40 40 42 43 43 44 44 45 45 45 46 45 44 45 42 38 37 37 38 38 39 41 42 41 40 39 39 39 39 40 43 42 41
41 40 40 40 39 39 39 39 39 40 41 41 44 43 43 43 42 42 42 43 42 40 39 39 38 38 38 38 38 40 41 41 39 39 38 36 35 35 36 39 42 41
41 42 41 40 40 39 39 39 39 40 40 39 40 42 42 41 43 42 39 39 39 40 42 37 37 39 38 38 38 39 40 39 39 38 36 35 34 34 34 34 35 38
42 42 42 41 40 41 41 40 40 40 40 40 40 42 42 41 41 40 38 36 35 35 36 36 37 37 39 37 38 38 39 39 38 37 36 34 34 33 33 33 33 34

ECMWFNIL_sfc_dewp_021.txt.gz
Dewpoint
60 59 58 57 57 57 56 55 54 55 55 55 54 55 54 55 55 56 57 57 57 56 55 56 55 55 54 54 55 52 52 55 53 53 54 54 53 54 53 52 54 51
59 58 58 58 56 55 55 56 56 55 55 55 54 54 54 55 55 55 56 56 55 55 55 55 54 54 53 52 55 53 52 53 51 51 54 53 52 53 54 54 53 52
59 58 58 58 57 57 57 57 57 55 54 55 56 55 55 56 55 55 55 56 55 55 55 55 54 53 53 53 53 53 52 52 51 52 52 51 52 51 52 52 51 52
59 58 58 57 57 58 57 56 56 55 54 54 54 55 55 55 55 55 56 55 55 54 55 55 54 53 51 51 52 51 52 50 51 52 51 51 51 49 51 51 51 49
58 57 57 57 58 58 57 57 56 55 54 55 55 55 54 54 54 54 54 54 55 54 54 54 54 53 52 51 51 50 51 49 51 50 48 49 51 51 52 51 50 50
58 55 56 57 57 57 58 56 55 54 54 55 55 54 55 54 53 53 53 53 53 53 53 53 52 52 52 51 52 52 50 48 50 49 46 47 48 49 46 49 49 48
58 57 58 57 58 58 57 57 55 54 54 55 54 54 55 54 52 52 51 51 51 51 51 52 52 52 52 52 51 51 51 51 49 47 45 46 47 49 47 47 44 44
57 57 57 57 58 57 57 55 55 54 55 54 55 54 54 53 52 54 53 51 50 50 51 50 51 51 51 52 51 52 52 52 51 47 46 46 49 45 46 47 48 44
58 57 56 57 57 57 56 54 55 55 53 54 54 54 53 53 53 53 52 51 51 51 50 51 50 50 52 51 52 52 51 52 52 50 48 48 47 46 42 44 45 46
58 58 58 57 57 57 56 55 55 55 54 53 53 54 53 54 53 52 52 52 51 50 50 50 50 51 51 49 49 49 50 50 50 52 50 49 47 45 43 45 45 46
58 58 58 58 58 58 57 56 56 56 55 53 54 54 53 54 53 52 52 51 53 50 50 50 50 50 50 51 52 52 50 51 50 49 51 50 50 50 50 47 47 47
58 58 57 58 58 58 57 57 57 56 55 55 53 53 54 54 54 53 52 52 52 52 52 51 51 51 50 50 51 52 52 52 51 51 50 50 50 50 48 50 50 47
57 57 57 58 58 58 58 57 56 57 56 54 54 54 54 55 54 54 55 54 54 54 53 53 53 53 54 54 53 53 53 53 54 53 52 52 52 50 50 50 49 50
57 58 57 58 58 58 57 57 57 57 55 56 55 55 55 54 54 55 56 55 55 55 55 55 56 55 55 55 55 55 55 55 54 55 54 54 54 52 52 52 51 50
57 57 57 58 57 57 57 57 57 57 57 56 56 56 58 56 56 57 56 56 55 56 55 57 57 57 57 56 56 56 56 56 56 55 56 55 55 53 52 51 50 51
56 57 57 58 57 57 57 57 57 58 57 57 56 57 57 57 56 56 56 56 56 56 56 57 57 57 55 51 51 55 56 56 57 56 55 55 55 54 53 52 51 51
55 56 57 57 57 57 58 57 56 57 57 57 56 56 57 56 57 56 57 57 56 56 56 57 56 55 49 46 45 46 53 56 58 56 56 55 54 54 54 53 54 51
55 55 55 56 56 56 56 56 56 56 56 56 56 57 57 57 58 56 56 57 57 56 57 57 56 50 47 46 44 44 46 56 56 56 55 55 54 54 53 53 53 54
54 54 55 55 55 55 55 55 55 55 55 55 56 57 56 55 56 57 56 56 56 56 56 57 57 47 44 44 43 42 41 46 54 55 56 55 55 55 54 54 54 54
54 54 54 55 55 54 55 55 55 54 55 55 55 55 55 55 55 57 56 56 55 55 56 56 55 46 43 42 42 41 40 41 54 55 56 55 55 55 55 54 54 53
51 52 53 54 54 54 54 54 55 55 55 55 55 55 55 55 55 55 55 56 56 56 55 55 54 42 42 40 39 38 38 39 54 54 54 53 52 52 52 53 52 53
45 49 52 52 53 53 53 53 54 54 55 55 55 54 54 55 55 55 55 56 55 55 54 54 53 38 37 37 38 37 39 52 53 52 50 48 48 48 48 48 48 50
44 45 47 49 50 52 53 54 54 54 54 54 54 54 53 53 54 54 54 54 54 54 54 53 48 40 38 38 38 39 45 51 50 47 46 45 45 46 46 47 47 46
42 43 44 45 47 50 52 53 53 52 52 52 54 54 54 53 52 51 51 53 53 53 54 53 48 42 38 39 40 40 46 49 46 45 44 43 42 43 44 43 42 44
41 42 44 45 44 47 49 49 49 49 49 49 52 53 52 51 51 51 51 50 51 51 46 50 49 43 38 38 39 39 45 48 44 42 42 41 40 39 41 40 39 39
42 43 45 44 44 46 45 45 46 47 48 48 50 50 50 49 49 49 48 46 46 47 48 49 49 48 43 38 38 39 40 46 44 42 41 41 39 36 37 38 37 36

ECMWFNIL_sfc_dewp_024.txt.gz
Dewpoint
60 60 59 58 55 55 55 54 53 53 52 52 52 52 53 54 54 55 56 57 57 57 57 57 57 57 55 55 55 51 53 55 54 54 55 55 56 56 55 53 54 50
62 60 58 57 56 54 55 55 55 53 52 52 52 53 54 54 55 55 55 55 55 54 54 54 55 55 54 53 54 52 50 52 52 51 54 54 53 54 55 54 51 47
61 61 60 58 57 58 57 57 55 53 51 52 54 53 53 54 54 54 53 53 52 52 51 51 52 52 52 53 53 52 50 50 51 51 50 49 49 49 51 48 49 48
61 62 60 59 59 59 58 56 55 53 53 51 53 53 53 54 54 53 53 52 52 51 51 49 49 48 48 50 51 48 49 49 49 49 48 47 47 47 48 48 47 46
62 60 60 60 60 59 57 57 55 53 51 50 54 53 52 54 53 51 52 51 51 50 49 49 48 48 48 48 47 46 46 45 47 46 45 47 49 49 49 50 50 49
60 57 58 59 59 59 58 56 53 53 51 52 54 51 52 52 50 49 50 50 49 49 49 47 46 46 46 47 48 47 45 43 45 44 42 44 43 46 44 48 49 48
59 59 60 59 58 59 58 57 54 53 53 53 51 52 51 51 49 49 46 48 47 47 47 50 48 48 48 48 47 48 46 46 46 43 42 44 46 48 46 47 44 44
60 59 59 59 60 59 59 58 55 55 56 53 53 53 51 48 47 50 49 49 47 46 49 49 49 48 48 48 46 47 49 49 48 44 43 43 45 43 46 46 47 44
59 59 58 60 60 59 59 57 56 56 56 54 53 54 53 50 49 50 48 47 47 48 47 49 49 48 50 49 49 48 45 48 48 46 46 46 46 43 39 43 45 45
58 58 59 59 59 58 59 58 56 55 55 55 54 53 51 53 51 48 48 47 47 47 48 49 49 50 49 48 47 49 49 48 47 48 47 46 44 42 39 42 45 46
58 58 58 58 58 56 59 58 57 55 54 54 55 54 52 52 52 50 49 48 50 46 46 47 48 47 48 49 50 50 49 49 48 47 49 48 48 47 47 45 45 47
58 58 58 58 58 57 58 58 57 56 55 55 54 53 54 53 52 51 50 49 48 46 47 47 47 48 47 47 47 49 50 51 50 50 49 48 49 49 47 48 49 47
57 58 57 57 57 57 57 56 56 57 55 54 54 54 55 54 53 51 52 51 48 49 49 50 50 50 50 50 49 49 50 51 52 51 51 51 50 49 49 49 49 48
58 58 58 57 57 57 56 57 56 56 55 54 54 54 55 53 53 52 52 51 52 52 52 53 53 53 52 53 52 54 55 55 55 55 53 53 54 51 52 51 51 50
57 58 58 57 57 56 56 56 55 56 55 54 55 55 56 53 53 53 53 52 53 54 54 55 56 55 55 55 55 55 56 56 56 55 56 55 55 55 55 54 53 53
57 57 56 57 57 57 55 55 54 55 56 55 55 54 55 55 54 54 53 54 55 55 56 58 58 58 57 51 52 55 56 56 57 56 55 55 56 56 56 56 56 56
55 55 55 55 56 56 55 54 54 55 56 57 56 55 56 56 56 55 56 56 55 56 57 58 58 57 47 45 46 48 54 56 56 56 57 57 56 57 56 55 56 54
55 56 55 55 56 55 55 55 56 56 55 56 56 57 58 58 57 56 55 56 55 55 57 57 57 51 44 44 44 44 50 55 56 56 57 56 56 56 55 55 56 57
54 54 55 56 56 56 56 55 55 56 56 56 57 58 58 56 56 56 55 56 56 55 56 57 58 45 44 43 43 43 44 52 56 56 56 58 57 57 57 57 56 56
49 51 52 53 55 56 56 55 55 55 56 57 57 57 56 56 57 56 55 55 56 56 55 56 55 46 43 43 42 41 41 48 57 57 58 57 57 57 56 56 56 55
41 42 47 50 52 52 54 55 56 57 56 56 56 56 57 56 56 55 56 57 57 57 55 55 54 43 43 42 41 40 39 47 57 57 57 56 55 55 55 54 55 55
41 42 44 46 48 51 52 54 55 55 55 57 57 56 56 57 57 57 57 57 57 57 56 55 57 40 41 41 40 39 42 57 57 56 55 54 54 54 54 54 53 55
41 41 42 44 46 49 49 51 53 54 55 55 55 56 56 56 56 57 57 57 57 56 56 55 55 43 39 39 39 38 45 51 53 55 55 53 53 53 51 51 52 51
39 38 40 43 44 44 47 51 52 51 52 53 52 53 54 55 55 55 56 56 56 56 54 56 54 44 38 38 38 39 47 52 50 50 51 51 50 50 48 45 45 44
38 39 39 41 42 44 47 49 50 50 50 51 52 52 55 55 55 55 55 55 55 56 54 54 54 45 38 38 39 40 49 51 48 48 49 48 47 46 45 43 43 42
38 38 39 39 40 42 45 47 49 49 50 49 49 48 50 52 53 54 54 54 54 54 55 55 54 52 46 38 40 41 42 52 47 45 46 47 45 43 43 42 41 40

ECMWFNIL_sfc_dewp_027.txt.gz
Dewpoint
58 59 57 56 53 54 55 53 52 53 53 51 52 54 54 55 54 55 56 56 56 56 55 56 55 53 53 55 55 52 53 55 55 55 56 57 57 56 55 53 54 52
59 59 57 56 54 53 54 54 54 53 52 53 53 53 53 53 54 56 56 55 54 54 53 54 53 53 52 53 53 51 50 52 51 49 54 54 54 54 53 51 48 46
60 59 57 56 54 55 54 54 54 53 51 52 54 54 52 54 54 54 53 52 51 51 52 52 54 54 54 53 52 51 51 51 51 51 51 49 50 50 50 49 48 47
60 59 57 57 56 55 54 53 52 52 53 52 52 52 52 53 54 53 52 50 49 48 49 49 50 50 50 51 51 48 49 49 48 49 48 48 48 48 48 48 47 47
60 59 57 58 58 57 56 53 51 50 50 51 52 52 51 52 51 49 50 49 49 47 47 46 47 48 48 48 47 47 46 45 46 47 46 48 49 50 50 51 51 50
61 58 57 58 58 56 56 52 48 49 50 52 51 48 49 49 47 47 47 47 46 45 45 44 44 45 46 45 46 45 43 42 45 45 43 44 45 48 46 50 50 48
60 58 58 57 57 57 56 52 50 49 50 52 49 49 49 47 46 45 44 46 45 43 42 44 45 46 47 47 45 45 43 43 42 40 40 43 46 47 45 47 46 46
60 56 56 57 57 57 56 52 50 49 52 51 51 49 48 45 43 45 45 45 43 43 43 42 43 44 45 46 46 47 47 47 45 43 43 44 47 45 47 45 47 45
58 57 57 57 57 57 56 52 50 51 51 51 52 50 48 46 45 45 44 43 44 45 43 43 43 44 47 46 47 47 46 48 47 46 45 46 46 45 43 45 46 46
58 58 57 57 58 57 58 55 52 53 51 52 51 51 48 48 46 44 43 44 45 44 44 44 44 47 47 44 42 43 46 47 46 47 46 46 44 41 41 44 45 45
59 58 57 57 57 57 59 57 55 53 52 48 51 51 51 50 47 45 44 43 46 43 43 44 45 45 45 45 48 47 44 46 45 45 47 46 45 44 48 44 46 47
58 58 57 57 56 55 57 59 57 54 53 52 50 48 50 52 50 47 44 42 42 41 42 43 43 44 44 45 46 48 48 48 47 47 47 47 48 47 45 46 47 48
57 57 58 57 57 57 57 57 58 56 53 51 51 51 48 49 49 48 47 46 43 42 42 43 43 44 45 45 45 46 47 48 49 49 48 49 48 48 46 48 49 48
58 59 58 58 58 58 57 58 58 57 55 52 51 52 52 49 47 48 49 48 46 44 44 45 45 44 44 45 45 46 48 49 50 51 50 50 51 49 49 49 49 49
59 59 58 58 57 57 58 57 57 56 56 54 52 52 53 51 50 49 49 48 46 47 46 47 48 47 46 48 47 47 50 51 51 50 51 51 51 51 52 52 51 52
57 58 57 57 58 58 57 58 57 57 57 55 54 52 51 51 50 50 48 49 47 47 48 51 51 51 55 49 49 51 53 53 54 54 53 53 54 53 55 54 54 54
55 55 56 56 57 57 57 56 56 56 56 56 56 55 54 53 53 52 52 51 49 50 51 54 55 54 47 47 48 50 54 55 55 56 55 55 55 55 55 56 58 58
54 55 54 55 56 55 55 54 55 56 56 56 58 59 58 58 58 54 53 54 54 53 54 57 58 50 44 45 46 47 50 58 57 56 56 56 56 56 56 57 58 57
51 53 54 55 56 55 56 56 55 56 56 57 57 58 59 58 58 59 58 59 58 56 56 57 58 45 44 44 44 44 45 51 54 56 56 56 55 55 56 58 58 57
45 47 48 51 54 56 56 56 56 56 57 58 58 59 58 57 59 58 58 58 57 56 56 58 57 46 43 44 43 43 43 45 54 55 55 54 54 55 58 58 59 59
41 42 44 46 47 49 52 54 56 57 57 57 57 57 57 57 57 57 58 57 58 57 58 57 58 44 42 43 43 42 42 41 54 56 56 57 58 58 58 58 58 58
41 41 42 42 44 47 48 48 51 54 57 58 57 57 57 57 57 57 57 56 56 57 57 56 57 44 43 43 42 41 40 54 52 56 56 56 55 56 56 56 56 57
40 41 42 42 42 42 43 46 48 50 52 55 55 55 55 56 57 56 57 56 55 57 56 57 57 47 42 42 41 40 43 53 52 55 55 55 55 52 52 54 53 53
39 38 40 41 41 42 42 44 46 48 49 51 53 53 53 53 53 53 55 55 56 56 56 56 55 49 41 41 41 40 48 52 52 51 54 53 53 51 52 52 49 45
36 39 39 40 41 41 44 45 46 47 47 48 49 50 50 51 52 52 54 55 56 57 55 56 55 48 40 40 40 40 47 54 51 50 50 50 50 50 50 49 46 43
34 35 38 40 41 42 43 43 44 45 47 48 49 48 46 47 49 51 53 54 55 56 57 56 57 54 45 40 40 41 43 54 54 52 53 50 51 47 47 47 45 42

ECMWFNIL_sfc_dewp_030.txt.gz
Dewpoint
60 62 60 60 59 60 61 61 62 61 62 60 60 59 59 60 61 61 61 61 61 59 57 58 59 58 60 58 58 55 56 59 59 59 60 61 61 59 58 57 58 57
60 61 59 60 59 60 62 64 63 63 61 62 59 58 58 60 61 61 59 58 57 58 59 59 59 58 59 56 58 57 56 57 56 57 58 57 54 55 56 56 55 54
62 62 59 59 58 60 61 63 64 62 62 59 58 58 58 60 59 60 60 58 56 57 58 59 58 58 58 57 56 56 55 54 53 53 53 51 54 53 53 52 52 51
62 62 64 59 58 58 59 60 60 60 59 58 57 58 58 59 59 58 57 56 56 56 56 57 58 58 56 55 56 56 55 54 54 55 54 55 54 54 55 55 54 52
62 61 63 59 58 57 58 58 57 58 59 59 57 57 57 59 57 56 57 55 55 55 56 55 56 55 56 55 53 52 52 53 54 54 53 53 54 54 55 55 54 53
61 61 62 58 59 58 58 57 55 56 57 57 58 56 56 56 55 54 54 54 53 52 53 54 54 54 53 53 54 53 54 51 52 51 50 50 52 53 50 53 52 52
62 62 62 60 60 59 59 57 55 56 58 58 55 57 56 56 53 52 50 52 50 50 49 53 53 54 54 54 53 53 51 50 51 48 47 51 51 52 51 51 49 49
61 62 61 59 60 59 60 56 54 56 58 56 56 56 55 53 50 54 52 52 49 47 50 49 51 52 53 54 52 53 52 53 52 50 48 49 53 50 50 51 53 49
61 61 61 62 60 60 59 54 55 56 56 57 56 55 55 54 53 54 52 51 51 51 48 50 49 52 55 54 54 53 51 54 53 52 53 52 50 50 46 50 51 51
60 60 61 61 61 60 60 56 55 56 56 56 56 54 52 57 53 52 52 53 52 49 49 50 50 54 53 51 52 53 52 52 51 52 53 52 50 47 47 50 50 51
60 60 60 61 60 59 60 57 56 56 57 54 59 56 54 57 51 54 53 51 53 49 47 49 49 50 50 51 54 54 54 54 52 51 52 52 52 50 52 50 51 50
60 59 59 59 60 61 62 60 58 57 56 57 55 55 58 57 52 54 49 49 48 48 47 47 47 50 48 48 49 53 54 53 53 53 52 51 52 50 50 52 52 51
58 59 60 59 59 60 61 61 60 59 55 53 54 55 58 57 57 54 55 54 47 50 48 49 48 48 51 52 51 53 53 53 55 53 54 54 53 52 51 53 52 52
59 59 59 58 59 58 59 59 60 61 59 57 55 54 55 54 56 56 55 54 53 52 51 51 52 51 51 50 50 54 54 54 55 54 53 54 54 53 53 53 53 54
60 60 60 60 59 60 60 60 60 61 60 59 59 57 59 56 54 54 55 53 53 54 53 53 54 52 54 53 53 50 54 54 55 53 55 54 54 54 54 53 52 54
59 59 59 59 59 59 59 59 59 61 60 60 59 57 56 57 57 55 52 54 54 54 53 56 55 55 51 46 47 52 53 53 55 54 54 54 53 53 54 54 56 57
59 58 58 58 59 60 60 59 58 60 60 60 60 60 59 58 58 56 56 55 54 54 54 55 54 54 45 45 47 48 51 55 55 55 55 55 54 54 56 57 56 57
56 57 56 58 58 57 58 58 58 58 58 59 60 60 59 59 60 59 59 58 58 57 56 55 56 51 47 46 46 49 50 59 58 57 56 56 56 55 55 57 57 56
51 54 55 57 57 57 57 59 57 57 58 58 59 59 59 59 59 60 59 59 58 57 57 57 57 50 47 47 45 45 47 52 57 56 57 56 56 56 56 57 56 57
48 48 52 54 56 57 60 59 59 57 59 59 59 59 59 59 59 59 58 59 57 56 56 57 57 50 45 47 45 43 43 46 56 58 57 57 57 58 57 56 55 54
43 44 45 47 51 55 57 56 58 59 59 58 58 58 58 58 58 58 58 58 57 57 57 58 58 49 44 44 43 43 43 44 53 56 58 57 58 58 57 57 55 55
41 43 45 44 46 48 51 54 56 57 57 59 58 58 58 59 59 58 58 57 57 57 57 57 57 48 44 43 42 42 43 50 53 53 56 57 56 56 57 58 57 56
38 40 42 44 45 46 46 50 51 54 56 57 57 57 57 57 57 57 57 57 57 57 57 57 56 50 46 45 43 42 43 52 52 51 53 56 56 56 57 56 56 57
35 35 38 41 42 43 45 49 50 50 50 54 55 55 55 55 55 56 57 57 57 56 56 56 56 52 47 46 44 42 45 51 51 51 53 56 55 56 54 54 49 49
35 36 36 39 41 44 47 47 48 49 49 50 51 52 53 54 52 52 53 55 57 57 55 56 57 53 44 43 43 42 45 51 52 50 52 55 55 54 53 49 46 44
34 35 38 40 39 42 45 47 47 47 48 48 48 47 47 49 50 50 51 51 54 57 56 55 57 56 47 41 42 41 42 51 52 52 52 52 53 53 51 48 48 43

ECMWFNIL_sfc_dewp_033.txt.gz
Dewpoint
59 57 56 56 56 56 55 55 56 54 56 56 56 56 56 56 57 57 58 57 54 53 53 53 53 55 56 55 56 57 58 58 58 59 59 59 59 59 60 59 58 58
59 57 56 56 56 56 56 55 55 57 57 56 55 54 54 55 57 54 54 54 55 55 55 56 56 56 54 54 54 54 55 55 56 57 53 53 54 54 55 56 56 55
59 57 56 55 55 56 56 56 57 56 55 54 54 54 56 56 56 56 55 54 53 54 54 54 54 55 54 53 52 51 51 51 51 52 52 50 49 49 49 48 48 48
58 57 57 55 56 56 55 54 56 55 54 53 53 54 55 56 55 52 53 55 53 52 52 54 55 53 53 54 53 51 50 50 52 52 52 51 53 52 51 50 50 49
58 58 57 56 55 55 54 54 54 54 53 53 54 55 54 52 51 51 51 51 50 51 51 50 50 52 51 49 48 48 50 51 51 51 51 51 51 52 52 50 50 51
58 58 56 54 53 54 54 53 54 55 53 52 53 54 53 52 51 51 50 49 50 50 49 49 50 50 48 48 48 50 50 50 49 50 50 50 51 50 49 49 49 49
58 58 57 55 55 55 54 53 53 54 52 52 54 52 52 51 51 50 49 50 48 49 48 49 49 47 49 49 50 49 48 48 48 49 50 49 50 50 50 49 50 50
58 58 57 57 56 56 53 52 53 54 53 52 52 51 52 52 50 49 49 48 47 47 48 49 49 49 50 49 47 46 46 50 49 48 49 50 50 48 50 52 50 48
58 58 58 57 55 56 52 52 53 53 52 51 52 51 51 51 49 50 49 47 48 47 46 47 47 49 51 48 48 48 50 50 49 49 50 48 48 49 49 49 48 48
58 59 58 58 55 57 52 52 53 53 53 53 52 49 50 53 49 49 48 49 47 46 46 47 50 50 48 48 50 50 49 49 49 50 49 48 48 48 48 48 48 48
58 58 57 57 56 57 53 52 52 52 54 53 52 49 51 52 48 49 49 49 48 47 47 48 48 48 47 49 51 50 47 47 48 49 48 48 47 48 51 48 48 47
58 57 57 58 58 57 54 53 53 53 53 54 53 50 52 50 46 49 48 49 48 47 47 48 47 48 48 49 49 50 49 49 48 49 50 48 47 48 48 48 47 47
57 57 58 58 58 58 58 56 54 54 53 53 53 53 54 51 46 48 49 48 47 48 48 47 48 48 47 47 47 49 48 49 49 50 50 48 48 49 48 49 48 48
58 58 58 59 58 58 58 57 57 56 52 53 53 52 53 52 51 51 50 49 46 47 47 47 47 48 48 47 47 49 48 50 48 49 50 49 48 49 49 50 49 48
57 58 59 58 58 58 58 58 58 57 57 56 54 52 53 52 53 51 51 48 50 49 48 48 47 48 50 48 48 50 48 50 49 48 49 50 48 50 49 50 52 52
57 56 57 57 57 58 58 58 58 57 56 56 57 55 53 52 51 50 49 50 49 51 50 50 49 49 50 48 48 49 50 50 51 49 50 50 49 50 50 50 53 53
57 57 57 58 57 57 58 57 57 57 56 56 57 55 54 56 56 55 54 54 54 53 52 53 53 53 44 43 45 46 50 50 51 51 51 51 50 50 52 53 53 53
57 57 57 56 56 56 56 57 57 56 55 55 55 55 54 55 56 55 54 54 54 53 52 53 53 51 46 46 45 46 48 51 51 52 52 52 52 52 55 53 53 54
56 56 56 56 56 57 57 56 56 55 55 55 55 55 54 54 55 54 54 54 54 53 52 52 52 50 47 46 46 45 45 48 53 52 52 53 54 54 54 53 53 54
39 44 50 54 55 55 56 56 55 54 54 54 55 54 54 54 54 55 54 53 52 52 52 52 52 50 46 45 44 44 44 47 52 54 53 54 53 54 53 53 52 52
36 37 39 42 43 47 52 52 52 54 55 55 54 53 54 53 53 53 53 53 52 51 52 52 53 48 45 43 42 43 43 44 49 52 54 54 54 54 54 54 53 53
36 35 36 37 40 42 44 45 46 51 51 54 53 53 53 53 53 54 54 54 53 52 52 53 54 48 44 43 42 42 43 47 49 50 52 53 52 55 55 55 54 54
36 36 35 35 38 40 43 44 44 45 46 50 52 52 52 53 54 54 55 54 53 53 53 53 53 50 45 44 43 42 45 48 48 50 51 52 52 53 54 55 55 55
36 35 35 37 38 39 41 42 44 44 44 46 45 46 50 52 54 55 54 55 54 54 54 54 54 51 47 45 44 43 46 51 50 50 50 50 51 52 53 54 54 54
35 36 36 37 38 38 40 40 41 41 42 42 43 44 44 45 48 53 55 55 55 55 54 54 54 52 48 45 44 43 45 50 51 51 49 50 52 52 52 52 51 51
36 37 37 37 37 37 37 38 38 36 37 38 39 41 43 44 44 45 48 51 54 55 55 55 55 54 52 46 45 44 43 49 51 51 50 50 52 52 51 47 47 47

ECMWFNIL_sfc_dewp_036.txt.gz
Dewpoint
58 55 54 53 53 55 55 55 56 55 55 56 55 53 54 54 55 56 55 53 52 52 53 54 55 56 56 56 56 58 57 57 57 57 57 57 57 57 57 56 56 56
57 56 56 55 55 55 55 56 55 55 56 56 55 55 55 56 55 54 54 53 54 54 54 54 54 54 54 55 55 56 55 56 56 58 56 56 56 57 56 56 56 55
57 56 55 54 54 55 55 55 56 56 56 55 54 55 55 55 54 54 54 53 53 52 53 53 53 53 53 53 53 53 53 53 52 51 52 51 51 53 53 55 54 55
56 55 55 55 55 55 55 56 55 54 54 54 54 55 55 55 53 53 54 55 52 51 52 52 52 52 52 51 50 50 50 51 51 51 51 51 51 51 50 51 51 50
57 55 55 55 55 55 55 54 53 53 53 54 55 55 54 52 51 51 51 51 51 50 50 51 51 51 50 50 49 50 50 50 50 51 50 50 50 50 49 50 50 50
57 56 55 54 54 54 54 53 53 53 53 53 54 53 51 51 50 50 50 49 49 49 49 49 49 48 48 48 49 49 49 49 49 50 50 50 49 49 49 49 48 47
56 55 54 53 53 53 53 53 53 53 53 53 53 51 51 50 50 49 49 49 48 49 48 48 47 46 47 48 48 48 48 49 48 50 49 49 49 48 50 50 50 49
56 54 54 53 53 53 53 53 53 52 53 53 51 51 50 50 49 49 49 48 47 48 48 48 47 47 48 48 48 47 47 49 48 49 49 48 48 49 49 50 48 47
57 56 55 54 53 52 52 53 52 52 53 52 51 51 51 50 49 49 49 47 47 47 48 47 47 48 48 47 46 46 47 47 48 48 48 48 48 48 48 48 47 48
58 58 58 57 54 52 52 53 52 52 52 51 51 51 51 51 49 48 48 46 47 46 46 47 48 49 47 46 47 47 47 48 48 48 48 48 48 48 47 47 46 46
57 58 58 58 57 54 52 52 52 51 52 51 51 50 51 51 50 49 48 47 47 46 46 47 49 48 47 47 48 48 48 48 49 48 48 48 48 48 51 47 47 45
57 57 57 56 57 56 54 53 52 52 52 52 50 49 51 51 48 48 48 46 45 45 46 47 48 47 46 49 49 48 48 48 48 48 48 48 48 49 49 48 47 47
56 56 56 56 57 56 57 56 53 52 52 52 50 48 50 49 47 48 49 46 46 46 47 48 48 47 47 48 48 48 47 47 48 48 48 47 47 48 48 47 47 48
57 56 56 56 56 57 58 58 57 55 52 53 52 52 51 48 46 48 48 47 46 46 47 48 47 47 47 48 48 48 48 47 48 49 48 47 47 47 47 47 47 48
56 57 56 56 57 57 57 57 57 57 56 54 52 52 53 50 49 51 49 48 47 47 47 48 48 48 47 47 47 48 47 48 48 49 48 47 47 47 47 48 47 48
56 55 56 56 57 56 56 57 57 56 56 56 55 54 52 51 51 50 49 48 48 48 47 48 48 48 49 47 47 48 48 48 48 47 48 47 47 47 47 48 48 48
56 55 55 55 56 56 55 56 57 56 56 55 55 54 54 54 52 51 51 50 51 50 48 48 49 50 46 43 42 45 47 48 48 47 47 48 47 48 47 49 50 50
55 55 55 54 54 55 55 55 56 55 54 51 54 54 53 53 54 53 52 51 51 50 49 50 50 49 42 42 42 42 45 48 49 48 49 49 49 48 49 50 51 51
54 55 55 54 54 54 55 54 53 54 54 54 53 54 52 54 53 53 52 51 50 50 50 50 50 44 42 43 43 43 43 47 49 49 48 49 50 49 51 51 51 51
38 39 40 44 50 51 52 52 53 53 52 53 53 52 52 53 53 52 52 51 51 50 49 49 49 46 40 42 43 42 42 47 51 51 50 50 52 52 52 52 52 52
36 36 38 40 42 44 44 45 47 47 49 51 52 52 51 52 52 52 52 51 51 50 49 50 51 47 41 40 40 41 41 44 50 52 52 52 53 53 53 53 53 53
37 36 37 38 38 39 39 40 41 42 43 46 47 49 50 51 50 50 50 51 51 50 50 51 52 47 43 41 39 40 40 48 49 51 52 52 52 53 53 52 52 53
37 37 37 37 37 37 37 38 38 38 38 42 40 42 43 46 49 50 52 52 50 49 50 51 52 49 44 42 42 40 42 48 49 50 51 51 52 52 52 52 53 53
37 37 37 37 37 37 37 37 37 37 37 39 38 38 39 41 44 47 49 50 51 52 52 52 52 51 47 45 43 40 45 50 49 49 49 50 50 51 52 53 54 52
37 37 37 37 37 37 37 37 37 37 37 38 38 38 38 39 41 41 43 46 49 51 53 52 53 52 47 45 44 42 44 49 50 49 48 48 50 51 51 51 52 52
38 38 37 37 37 37 37 38 38 36 37 37 37 36 36 37 37 38 39 41 44 46 49 51 52 53 51 46 45 45 44 49 49 50 49 49 49 51 51 50 50 51

ECMWFNIL_sfc_dewp_039.txt.gz
Dewpoint
55 54 53 53 54 55 54 54 54 54 54 54 53 52 52 53 55 54 53 52 52 53 54 55 55 55 56 55 56 57 56 56 56 55 56 56 55 56 56 55 55 55
55 55 55 54 55 55 54 55 54 54 55 54 53 53 53 54 54 53 52 52 52 52 53 53 54 54 54 55 56 56 55 55 56 57 56 55 56 56 55 55 55 55
55 55 54 54 54 54 54 54 55 55 55 54 54 54 55 53 53 52 52 52 52 51 52 52 52 53 53 53 54 55 55 53 52 52 56 56 55 56 55 55 55 56
55 55 54 54 54 54 55 55 54 55 54 54 54 55 55 54 52 52 53 55 52 51 51 51 51 51 51 51 51 51 51 50 50 50 51 51 53 55 54 55 54 54
55 55 55 54 54 55 54 55 54 54 53 54 54 54 54 52 52 51 51 50 50 50 50 50 50 50 50 50 50 49 49 49 49 49 49 49 49 51 52 53 53 52
55 55 55 54 55 54 54 54 53 53 53 53 53 53 52 51 51 50 50 49 49 49 49 48 48 48 48 48 49 49 49 49 49 49 49 49 48 48 50 51 51 51
56 56 56 54 53 53 53 53 53 53 53 53 52 51 51 50 50 49 49 49 48 49 48 47 46 46 47 47 48 47 47 48 48 49 48 47 49 48 48 48 48 48
56 57 57 55 53 53 53 53 53 53 53 52 50 50 50 49 49 49 49 48 48 48 47 47 46 46 46 47 47 47 47 48 48 48 48 47 47 48 47 48 47 47
57 56 57 55 53 53 53 52 52 52 52 51 50 50 49 49 49 48 48 47 47 47 48 46 46 46 46 46 46 46 46 46 48 47 47 47 47 47 47 46 46 47
56 57 57 56 54 55 54 53 52 52 52 51 50 49 49 49 48 48 47 46 46 46 46 46 46 47 46 46 46 46 46 47 47 47 47 47 47 47 46 46 46 46
56 56 56 56 56 56 55 53 53 52 52 51 49 49 49 49 49 48 47 46 46 46 46 46 47 47 46 45 46 46 46 46 47 47 46 47 47 47 51 45 45 45
55 56 56 56 55 55 54 53 52 52 52 50 50 49 49 49 48 47 48 46 46 46 46 46 47 47 46 46 47 47 46 46 47 47 47 47 47 47 47 46 46 45
56 56 56 56 55 55 55 54 53 53 52 51 50 50 50 50 49 48 49 47 46 46 46 46 47 47 46 47 47 46 46 46 46 46 46 46 46 47 47 46 46 47
55 56 56 56 56 56 56 56 56 55 54 52 51 49 49 50 49 48 48 48 46 46 46 47 47 46 46 46 47 46 46 46 46 46 46 46 46 46 47 46 46 47
55 56 56 56 56 56 56 56 56 56 56 55 52 51 52 50 48 48 48 48 47 46 46 47 48 48 47 47 47 46 46 46 46 47 47 46 46 46 46 46 46 46
55 55 55 55 55 55 55 55 55 55 55 54 54 54 53 51 49 50 48 48 47 46 46 47 47 48 50 48 48 48 46 47 46 46 46 46 46 45 45 46 46 46
55 54 53 53 55 54 54 54 55 55 54 53 54 54 54 53 51 49 49 48 47 47 46 47 47 48 45 43 42 45 47 47 47 46 46 46 45 45 45 46 46 47
53 54 54 54 54 54 53 53 54 53 53 53 53 53 53 54 53 51 51 50 49 48 47 47 47 47 44 43 42 41 44 47 47 47 47 47 46 46 46 46 47 47
39 40 41 43 46 49 51 53 53 52 52 52 52 52 52 53 53 53 52 50 49 49 48 48 48 47 42 40 41 41 41 43 46 46 47 47 48 47 47 48 47 48
38 38 38 38 40 40 40 41 43 45 48 51 51 51 51 52 52 53 53 52 50 49 48 48 48 47 42 41 41 41 40 42 46 46 46 46 47 48 48 48 49 49
37 37 38 37 37 37 37 38 39 40 40 44 46 47 48 49 50 50 51 51 51 50 49 49 50 47 42 40 40 40 40 41 47 48 48 49 49 49 49 49 49 50
37 37 37 37 37 37 37 37 37 37 38 40 41 41 41 43 44 45 46 48 49 50 49 50 51 46 43 40 39 40 40 45 47 48 49 50 50 50 51 51 50 50
37 37 37 37 37 36 36 36 36 37 37 39 37 37 37 39 40 42 44 45 46 47 48 49 51 48 44 41 41 40 42 47 47 47 48 48 50 51 51 51 51 51
37 37 36 36 36 36 36 36 36 36 36 38 36 36 36 37 39 39 40 42 42 44 46 48 49 48 45 45 43 41 43 48 48 48 48 49 50 51 50 51 52 52
37 37 36 36 36 36 37 36 37 37 37 37 36 36 36 36 38 36 37 38 39 42 45 45 46 46 44 43 43 43 44 47 49 49 48 48 49 50 49 49 51 51
40 38 37 37 36 36 36 37 37 36 36 36 36 36 35 36 35 35 35 36 37 38 41 42 44 45 44 41 41 41 42 47 49 49 48 48 48 49 50 48 49 50

ECMWFNIL_sfc_dewp_042.txt.gz
Dewpoint
55 56 56 56 55 55 54 54 54 54 54 55 55 54 55 55 56 54 53 53 54 55 55 56 57 57 57 58 59 59 59 58 58 57 57 57 57 57 58 57 57 57
55 55 56 55 55 55 55 55 54 54 54 54 54 54 54 55 54 53 53 53 54 54 54 55 56 55 56 57 57 57 57 57 57 58 57 56 56 57 57 57 57 56
54 54 55 55 55 54 55 55 55 54 54 54 54 55 55 55 53 53 52 53 53 53 54 54 54 55 55 55 56 57 56 56 56 57 57 57 56 57 56 56 56 57
54 54 54 54 55 54 55 55 54 55 54 54 54 55 55 55 53 54 55 56 53 53 52 53 53 52 52 53 54 53 53 52 52 55 56 56 57 56 56 56 56 56
54 54 54 54 55 55 55 54 54 54 54 54 54 54 55 53 52 52 51 51 51 51 52 51 51 51 51 51 51 52 52 51 51 52 53 53 53 56 55 56 56 56
55 55 55 55 55 55 54 54 54 54 54 54 54 54 52 52 51 51 50 50 50 50 50 50 49 49 50 50 50 50 51 50 50 51 50 51 50 52 54 55 55 55
55 55 54 54 54 54 54 54 53 54 54 54 53 52 51 51 50 50 49 50 50 51 49 48 48 48 49 49 50 49 50 50 50 50 49 49 51 50 51 52 54 54
55 55 54 54 53 53 53 53 53 54 53 52 52 51 51 50 49 50 49 49 48 48 48 47 47 47 48 49 49 49 49 50 49 49 49 48 49 49 49 50 51 52
55 55 55 54 53 53 53 53 53 53 53 52 51 50 51 49 49 49 48 48 48 48 47 47 48 48 47 48 48 48 48 49 49 49 49 49 49 49 48 48 49 51
55 55 55 55 54 53 52 53 53 53 53 51 50 50 49 50 49 48 47 47 48 47 47 47 48 48 47 47 47 48 48 48 48 49 49 48 48 48 47 47 48 48
55 55 55 55 54 54 53 53 53 53 52 50 50 50 49 49 50 48 47 46 47 46 46 46 48 48 47 47 47 48 48 48 48 48 48 49 49 48 51 47 48 48
55 55 55 55 54 54 53 53 53 52 52 52 51 50 49 49 48 49 48 47 47 47 46 46 48 48 47 47 48 48 48 48 49 48 48 48 48 49 48 48 48 47
55 55 55 55 55 55 55 54 53 53 52 52 51 50 50 50 49 48 51 47 47 47 46 47 48 48 47 48 48 48 48 48 48 48 48 48 48 48 48 47 47 47
54 55 55 55 55 55 55 56 55 55 54 52 50 50 50 51 50 50 49 49 48 46 47 49 48 47 46 48 48 48 48 47 48 48 48 48 48 48 48 48 48 48
55 55 55 55 54 55 55 55 55 54 54 54 54 53 53 52 51 49 49 49 49 48 47 48 47 48 48 48 48 47 47 48 48 48 48 48 48 47 47 47 48 48
54 54 54 54 55 55 55 55 55 54 54 54 54 54 54 52 50 50 49 48 48 48 47 48 48 48 50 48 48 48 47 48 48 48 48 48 48 48 47 47 47 48
53 53 54 54 54 54 54 54 54 54 54 53 53 53 53 53 53 52 51 50 49 48 47 47 48 49 46 44 43 45 48 48 47 48 48 48 48 48 47 48 47 48
46 44 46 48 49 49 50 51 51 52 52 52 52 52 52 52 53 52 52 51 51 50 49 49 48 46 41 41 41 41 44 49 48 47 48 47 47 47 47 48 48 48
42 41 39 41 41 42 41 42 42 43 45 46 47 49 48 48 49 50 50 51 52 51 51 50 50 43 40 40 40 39 40 43 47 48 47 48 48 48 48 48 48 48
38 39 39 38 38 38 39 38 38 39 42 43 43 44 44 45 45 45 46 47 49 50 50 51 51 45 41 40 40 39 39 41 46 47 48 48 48 48 49 49 49 49
37 37 37 37 37 37 37 37 37 38 38 40 41 41 42 42 43 43 43 44 46 47 48 48 50 43 42 41 41 40 40 43 49 49 49 49 50 49 49 49 49 49
36 36 36 36 36 36 36 36 37 37 37 38 39 38 39 39 40 41 41 42 43 44 45 46 47 41 40 41 41 41 42 49 49 49 50 50 51 51 51 51 50 50
36 36 36 36 36 36 36 36 36 36 37 38 36 36 36 37 38 39 40 40 41 42 43 44 45 42 39 39 40 41 44 49 50 50 49 50 51 52 52 52 51 51
37 36 36 36 36 36 36 36 37 37 37 37 36 36 36 37 38 37 38 39 39 41 42 42 42 42 38 38 38 39 43 48 48 49 49 49 50 50 51 51 52 51
37 37 37 36 36 36 36 36 36 37 37 37 36 36 36 36 38 36 36 37 38 39 41 40 41 41 39 37 38 38 42 46 48 49 49 49 49 50 50 50 51 51
38 38 37 37 36 36 37 36 37 36 36 36 36 36 35 36 36 36 35 36 36 37 38 39 40 40 40 37 38 38 39 45 47 48 48 48 49 49 50 50 51 51

ECMWFNIL_sfc_dewp_045.txt.gz
Dewpoint
61 62 61 61 61 61 61 61 62 62 62 62 61 61 60 62 61 61 62 63 64 65 64 65 64 64 64 64 64 63 63 64 64 64 63 64 63 64 63 62 63 62
61 61 61 61 60 60 61 62 62 62 62 62 62 62 62 61 61 60 61 62 63 64 63 64 63 63 64 63 64 64 63 63 63 61 63 63 62 62 62 63 63 63
59 61 61 61 60 61 61 62 62 62 61 61 62 62 61 62 60 60 62 62 62 63 63 63 63 63 63 63 63 63 63 63 62 63 62 61 62 62 62 62 62 63
59 60 61 61 60 60 61 60 60 61 61 60 60 61 61 60 60 60 61 61 62 62 62 62 62 62 62 62 63 61 62 62 62 63 62 62 62 61 62 61 62 62
59 60 61 60 60 60 60 60 60 60 60 60 61 61 60 59 59 58 59 60 61 60 61 61 61 61 61 62 61 61 62 61 62 63 61 62 62 62 62 61 61 62
59 58 59 59 59 60 60 60 59 59 59 61 61 60 60 59 57 57 58 59 59 59 59 59 59 59 59 60 60 60 59 58 58 60 59 61 61 62 60 61 61 60
59 59 59 59 59 60 60 61 60 60 59 60 59 59 59 58 57 56 56 57 57 56 56 57 57 57 58 58 56 56 56 56 55 54 53 54 58 60 60 61 60 59
59 60 59 59 60 60 60 59 59 59 60 59 59 58 58 56 55 56 56 55 54 54 54 53 54 54 55 55 53 56 57 56 56 53 53 54 56 56 59 60 61 59
59 59 59 60 60 59 59 59 59 60 58 59 58 57 57 56 55 55 54 54 53 54 52 52 52 52 55 54 54 54 54 55 56 55 55 55 54 54 53 57 59 60
58 59 60 60 60 59 60 59 59 59 58 58 57 56 55 56 55 53 53 53 53 52 52 51 52 53 52 51 50 51 52 53 53 54 54 54 53 51 50 53 56 59
59 59 59 59 59 59 59 58 58 57 56 55 56 55 55 54 53 53 52 50 52 49 50 50 50 50 49 51 53 54 53 54 53 52 54 53 54 53 53 52 53 56
58 59 60 59 58 58 57 57 56 56 55 55 54 53 54 54 52 51 49 49 48 48 48 48 49 50 47 48 50 53 54 54 54 53 53 52 53 52 51 53 54 53
56 57 58 57 58 58 58 56 56 56 54 53 53 53 53 53 53 51 52 49 47 49 48 49 48 49 51 52 50 50 52 52 53 54 53 55 54 52 51 52 53 52
58 58 57 57 58 58 58 58 57 56 55 55 54 54 53 52 52 52 53 52 52 50 50 51 52 50 50 51 51 52 52 52 52 54 52 53 56 54 54 53 53 54
57 57 57 58 58 58 58 58 59 59 59 58 57 57 57 55 54 53 52 52 51 52 50 52 53 53 52 54 53 54 53 53 53 51 52 51 52 53 54 53 52 53
55 56 57 57 57 56 57 58 58 58 58 57 57 57 57 56 56 55 53 52 51 51 52 53 53 53 50 45 46 52 53 52 54 54 52 52 51 52 54 54 53 54
53 53 53 53 54 55 55 56 56 56 57 56 56 55 56 56 57 57 57 56 55 55 56 55 54 47 40 40 41 43 51 53 53 54 54 53 54 53 52 53 54 52
46 46 47 48 48 49 49 49 51 51 50 51 51 51 51 52 53 54 56 57 57 56 55 54 50 42 39 39 39 40 44 53 52 52 53 53 53 52 51 52 54 55
44 42 43 42 42 43 44 43 43 44 45 46 47 48 49 48 48 50 51 53 54 52 51 49 47 41 40 40 40 40 39 47 50 52 51 51 52 52 53 54 55 54
39 39 39 39 40 41 41 41 41 42 43 44 45 46 47 47 47 48 48 49 50 50 47 46 44 40 39 40 40 40 40 47 54 54 53 51 51 52 53 53 53 53
38 38 38 39 39 40 41 42 43 43 41 42 42 44 44 43 44 45 46 47 48 48 47 46 43 38 38 38 39 40 41 48 56 57 57 57 56 56 55 54 54 54
38 38 38 38 38 39 39 39 40 42 42 42 42 42 45 45 44 44 44 44 45 47 46 45 43 37 37 38 38 39 43 53 54 55 56 56 57 57 56 56 56 56
37 37 38 38 38 38 38 39 39 39 40 40 41 41 41 42 42 42 42 43 44 44 45 44 43 39 37 37 38 39 46 50 52 50 51 52 54 54 54 55 57 56
37 37 37 37 37 37 38 39 39 39 39 40 39 39 39 40 40 40 41 41 43 42 43 44 43 40 37 37 37 38 42 49 48 48 50 51 51 54 53 53 55 52
38 38 37 37 37 38 39 38 38 39 39 39 39 39 39 38 38 38 39 40 41 42 42 43 43 41 37 37 37 38 43 47 46 46 48 49 49 49 52 52 53 53
38 38 39 39 38 39 39 42 40 39 39 39 38 36 36 37 37 38 38 38 40 40 42 42 41 41 39 37 37 38 39 45 46 45 46 47 47 47 47 49 51 52

ECMWFNIL_sfc_dewp_048.txt.gz
Dewpoint
62 62 61 59 59 60 61 60 59 59 59 58 57 58 57 59 59 60 60 61 60 61 61 62 61 60 60 61 61 60 62 63 62 63 63 63 62 62 62 61 62 61
64 63 62 60 59 61 61 61 60 59 60 59 58 57 59 60 60 60 59 60 60 60 60 60 60 59 59 58 61 62 63 64 63 61 64 63 63 64 64 63 63 62
65 65 63 62 61 62 61 61 60 60 59 59 59 59 59 60 60 59 59 60 59 59 60 59 59 59 58 58 60 63 63 64 64 63 64 62 64 63 64 64 62 62
64 64 62 60 61 61 61 60 60 60 60 59 59 59 59 59 59 59 59 58 59 59 59 59 59 58 57 58 60 59 61 62 62 63 63 63 63 62 63 63 62 61
63 63 62 60 60 60 61 60 59 60 59 59 60 60 57 58 58 58 58 57 58 58 58 58 58 58 58 59 58 57 59 58 61 61 60 61 62 62 62 63 62 61
63 62 61 60 60 61 60 59 58 58 58 60 60 58 58 57 57 57 57 56 55 57 57 57 56 56 58 58 58 58 57 57 59 59 59 59 58 60 57 60 62 61
62 62 62 61 60 60 60 59 58 58 59 59 58 59 58 57 56 56 55 56 55 55 54 55 55 56 58 58 57 57 56 55 55 55 54 54 55 58 56 59 59 60
62 62 62 62 61 60 59 58 59 59 59 58 59 59 58 55 55 56 55 54 52 53 54 53 52 52 56 57 55 56 56 55 54 53 53 53 55 53 55 57 61 60
62 62 62 62 62 60 58 58 58 59 58 58 58 58 58 55 55 55 54 53 52 54 53 52 50 50 54 55 56 55 54 55 55 53 53 54 54 53 51 54 57 60
61 61 62 62 62 59 58 58 58 58 58 58 57 57 55 56 55 54 53 52 52 52 52 51 49 49 51 51 52 53 53 54 52 53 52 52 51 49 48 53 56 59
61 62 62 62 63 59 60 59 59 58 59 57 57 56 54 54 54 53 52 50 52 50 49 49 48 47 49 51 53 54 53 54 52 51 52 51 51 50 54 52 55 59
61 61 60 61 61 62 62 60 59 59 58 57 54 52 52 52 50 49 47 47 48 47 48 47 46 46 45 47 49 52 53 53 54 53 50 49 50 50 50 51 54 55
60 60 60 61 61 61 61 59 58 58 57 54 52 50 50 48 48 47 48 46 46 47 46 46 45 45 47 48 48 49 50 50 52 53 52 52 50 49 49 50 51 53
61 62 61 60 60 59 58 58 57 56 54 53 52 52 51 49 48 49 48 45 46 45 46 47 46 45 45 46 46 48 49 49 49 51 52 52 53 51 51 51 52 52
58 59 59 60 59 58 57 57 56 55 52 51 51 52 52 49 49 48 48 47 47 49 48 51 51 52 53 55 51 47 48 49 48 46 49 51 52 51 51 49 50 52
58 59 57 57 57 58 58 57 57 57 56 55 53 53 53 52 50 51 49 50 50 51 54 57 58 55 47 42 43 52 50 48 50 50 46 48 49 50 50 49 50 52
56 55 55 55 55 57 58 57 57 58 57 57 57 57 57 56 55 52 52 52 53 56 56 56 53 48 41 39 39 39 53 51 50 51 50 49 49 50 48 49 50 49
55 54 54 54 54 54 54 54 54 54 54 55 56 56 56 58 58 57 57 57 57 55 55 54 51 41 39 40 40 39 40 52 50 50 51 51 51 50 49 49 51 52
51 51 52 52 52 52 52 52 53 53 53 54 55 55 56 56 56 57 56 54 52 50 49 48 46 38 38 39 39 39 40 47 49 50 49 49 50 50 51 52 52 52
50 48 50 51 52 53 52 51 52 51 53 53 52 53 54 54 55 55 54 52 50 48 46 44 44 39 38 38 39 38 40 43 54 54 53 51 50 51 52 51 51 50
45 46 47 46 45 46 47 46 47 47 46 46 48 49 49 49 50 50 51 51 49 47 45 45 43 38 37 37 38 38 39 40 58 59 55 56 56 57 56 55 55 54
41 41 42 43 43 42 42 43 45 47 46 46 46 46 46 46 46 46 47 48 49 47 45 42 42 37 37 37 37 38 38 55 55 56 56 55 57 58 57 57 57 57
39 39 39 39 40 41 41 42 43 46 44 43 43 42 42 42 44 44 44 45 46 46 45 44 42 39 37 37 37 37 46 50 52 51 52 54 55 54 55 56 57 57
38 37 38 39 39 39 40 40 40 41 43 42 45 41 45 43 44 45 44 44 44 47 46 44 42 39 37 37 37 37 40 49 46 48 50 50 51 52 52 52 55 51
39 38 38 39 39 40 40 40 40 40 40 41 41 41 41 40 39 40 41 41 42 43 45 46 44 41 37 37 37 37 41 47 44 43 46 48 47 47 49 48 52 52
39 39 39 38 38 39 40 40 40 41 41 41 40 38 38 38 38 40 40 41 43 43 44 45 46 44 39 36 37 37 37 43 44 43 44 44 44 43 43 45 47 50

ECMWFNIL_sfc_dewp_051.txt.gz
Dewpoint
65 65 62 62 62 60 60 58 58 59 59 59 58 59 58 60 60 60 60 60 60 59 59 60 60 61 60 60 63 63 62 63 63 62 63 63 62 62 63 61 62 62
63 64 61 59 60 60 59 59 60 59 59 59 58 58 59 60 59 60 60 59 59 59 59 60 60 60 60 58 60 60 61 62 63 61 63 63 63 63 63 63 62 63
66 64 61 60 59 60 60 60 60 60 59 59 59 59 60 60 60 59 59 59 58 59 60 59 59 59 58 57 59 61 61 62 62 62 63 62 63 63 63 64 65 64
65 63 59 59 60 60 61 60 60 60 60 59 59 59 60 60 60 60 58 59 58 59 59 59 59 58 56 56 59 60 62 62 62 62 63 62 62 62 62 62 62 61
63 62 61 60 61 61 61 60 59 60 60 59 60 59 59 60 60 57 58 57 59 59 58 58 58 57 57 57 57 57 60 62 62 61 59 62 62 62 62 62 61 61
63 62 60 60 60 60 59 59 58 59 59 60 59 56 58 57 57 56 56 56 56 56 57 57 56 56 56 56 57 57 58 56 59 60 58 60 58 59 59 62 61 61
64 62 60 58 58 58 59 60 60 59 59 60 58 57 56 56 57 57 55 56 54 54 54 54 54 56 56 57 56 57 57 56 55 56 54 55 56 58 55 57 60 58
63 62 60 58 58 59 60 58 59 59 60 59 59 57 55 55 55 56 56 54 54 52 53 52 53 53 56 56 54 56 56 55 55 53 53 52 55 54 55 55 59 59
63 62 60 59 60 59 59 58 59 59 58 59 58 57 56 55 54 56 55 53 53 54 52 53 52 52 55 54 54 55 54 54 54 53 53 53 54 53 51 54 58 59
63 61 61 60 59 59 60 59 59 59 58 58 57 57 55 56 55 54 53 53 53 52 52 51 50 51 53 53 52 52 52 53 52 54 53 53 52 51 49 52 55 59
61 61 62 61 59 58 59 59 59 58 58 57 57 56 55 55 53 53 52 50 53 51 50 49 49 47 50 52 53 53 52 52 52 51 52 52 51 51 55 52 54 59
62 62 61 62 60 58 59 58 58 58 58 58 55 54 55 53 52 52 49 47 49 49 47 47 45 46 48 49 51 52 54 53 52 52 52 50 50 50 49 52 55 57
63 63 63 63 61 59 59 57 56 58 57 57 55 54 52 52 51 50 50 48 47 48 47 47 45 44 47 48 50 50 52 52 53 53 51 52 51 49 49 51 52 52
61 63 64 62 61 59 58 58 58 58 57 56 53 52 51 49 48 48 49 47 48 48 47 47 46 45 46 48 48 50 51 52 52 53 51 52 52 50 51 51 52 54
61 62 63 61 61 59 59 58 58 57 55 53 51 50 50 48 48 47 46 45 44 47 45 47 52 53 49 50 52 50 50 50 50 49 50 51 52 51 51 50 51 53
61 62 60 60 58 58 57 58 56 55 53 52 51 51 51 50 48 48 47 47 48 48 51 58 55 53 46 42 42 48 54 48 50 49 48 49 51 50 50 50 50 52
60 61 57 58 58 57 58 56 53 52 51 50 50 50 51 49 49 48 48 49 49 53 56 55 52 45 40 39 40 40 49 55 48 49 47 48 49 49 49 49 50 50
58 58 57 58 59 57 57 56 56 54 54 55 56 56 54 53 53 53 57 57 56 54 54 52 48 39 38 39 40 40 42 53 54 50 49 49 48 48 47 47 49 51
54 54 54 54 55 56 56 55 55 55 55 55 57 58 57 56 56 56 54 53 52 50 48 47 44 38 37 38 39 39 39 47 51 50 47 48 49 49 48 48 48 50
54 53 54 54 54 54 55 54 54 54 56 57 57 58 58 58 57 55 54 51 49 47 45 43 42 39 37 37 38 37 37 41 57 50 49 48 49 50 52 51 51 50
51 51 51 52 53 54 53 52 52 52 52 54 56 58 58 58 59 57 54 52 49 47 44 43 42 37 37 37 37 37 37 39 56 53 51 50 50 51 51 51 51 51
48 49 50 50 51 52 51 51 52 52 52 54 53 53 50 51 52 52 50 49 48 46 45 43 42 37 36 36 36 36 36 53 54 54 53 53 54 54 52 51 51 51
47 47 49 50 50 50 50 50 50 50 51 48 47 48 48 48 48 48 49 48 47 46 45 43 41 38 36 36 36 36 40 52 53 52 51 53 54 56 54 55 56 56
47 46 47 47 46 45 46 46 47 47 48 48 47 45 45 45 45 46 47 48 48 47 45 44 41 39 36 36 36 36 38 49 50 50 52 52 53 54 54 54 56 54
46 47 47 46 46 45 44 44 44 44 46 48 50 47 44 42 42 43 44 46 48 47 49 47 43 40 36 36 36 36 40 43 46 46 47 49 50 49 50 51 53 48
43 43 43 43 44 42 42 42 43 44 43 42 45 41 42 40 40 41 41 42 44 44 46 48 46 40 37 36 36 36 37 41 46 44 45 45 45 44 44 45 47 50

ECMWFNIL_sfc_dewp_054.txt.gz
Dewpoint
64 64 65 65 64 63 64 65 63 63 63 64 64 63 63 64 63 65 64 64 65 65 64 65 64 64 63 64 66 65 66 64 65 65 64 64 64 63 64 63 63 64
63 64 64 64 63 62 63 63 63 63 64 64 64 64 63 63 63 64 63 64 64 64 64 64 64 64 64 62 64 65 66 66 64 62 64 64 64 64 64 64 63 64
63 64 63 63 62 62 61 63 64 64 63 64 64 64 63 63 63 64 63 63 62 63 64 65 65 64 63 63 62 64 64 65 64 64 63 62 64 64 64 64 65 64
63 63 62 62 63 64 63 63 63 64 64 63 63 63 62 62 64 63 64 63 63 62 64 64 64 63 61 62 62 63 64 65 65 64 64 64 64 63 64 64 64 63
63 62 62 62 63 62 62 62 62 63 63 63 64 62 62 63 63 61 63 63 62 62 63 63 63 63 62 62 62 62 64 65 65 65 64 64 64 63 64 64 63 63
63 62 62 62 62 62 62 61 61 62 62 62 62 62 62 62 61 60 60 61 61 61 62 62 62 62 61 62 63 63 62 62 62 64 63 62 64 63 60 63 62 63
63 63 63 61 62 62 61 61 61 61 62 61 60 61 61 60 60 58 58 60 58 59 58 61 60 61 61 63 61 61 62 61 60 60 57 59 60 61 59 60 60 59
62 62 63 62 62 61 61 61 61 62 62 60 61 59 59 58 58 60 59 60 56 56 58 56 58 59 60 61 60 60 61 62 61 58 58 57 59 58 59 61 62 62
61 61 61 61 62 62 60 60 61 62 61 62 60 58 59 59 59 60 58 58 56 58 55 56 57 58 61 60 60 59 58 59 60 58 59 58 58 58 55 56 60 61
61 60 60 60 60 60 60 60 61 61 61 61 60 58 57 61 59 58 59 60 57 55 55 53 57 57 59 58 57 58 59 58 58 59 57 58 58 55 53 56 58 60
61 60 60 60 60 60 60 60 61 61 61 59 60 59 57 61 56 60 57 59 60 56 53 54 55 55 57 58 59 60 58 59 57 57 58 58 58 56 56 57 58 60
61 61 60 60 60 60 60 60 60 60 61 59 57 57 58 58 56 59 53 53 56 56 51 53 52 54 55 56 56 58 59 59 57 58 57 56 51 55 55 56 58 59
61 61 60 61 60 61 61 62 60 61 60 60 58 58 56 56 57 56 58 55 52 56 51 52 51 52 55 56 56 55 58 56 58 57 57 59 55 56 56 56 57 59
62 63 61 60 60 60 60 60 60 59 59 61 58 57 55 54 55 54 58 56 57 54 53 54 52 50 49 51 52 56 58 58 57 58 57 56 58 57 55 55 58 61
63 63 62 61 63 61 61 61 61 59 60 59 58 56 58 54 55 52 53 55 51 54 55 54 52 49 46 46 49 50 54 56 58 57 57 56 55 55 55 55 58 61
62 62 62 61 60 60 59 59 60 60 61 57 54 54 57 54 54 53 54 52 53 56 54 53 51 49 44 42 43 47 51 55 57 56 55 56 55 55 54 56 55 58
60 61 59 59 59 60 60 60 60 60 57 54 55 55 56 55 55 53 54 56 55 54 52 50 46 41 39 39 40 42 50 52 55 56 54 54 55 55 56 54 52 51
60 59 61 60 59 59 59 59 60 59 57 54 55 56 57 58 56 55 54 53 52 50 48 46 43 39 37 38 39 39 42 50 55 56 56 56 53 53 53 53 53 52
56 55 55 56 57 59 59 59 59 59 58 58 58 58 57 55 53 53 52 50 48 45 44 43 41 38 37 37 37 37 37 46 53 55 55 54 54 54 54 55 54 55
54 54 54 56 55 55 55 56 56 56 56 57 57 57 56 55 54 52 50 48 46 44 42 41 40 38 36 36 36 36 37 39 54 57 57 56 55 56 56 57 54 54
52 53 53 53 53 53 52 53 53 53 53 54 55 56 56 55 55 54 51 49 46 44 42 41 40 36 36 36 36 36 36 41 56 58 55 56 55 56 55 56 56 57
51 51 51 52 51 51 51 51 51 51 52 52 53 53 54 55 54 54 52 51 51 49 45 41 39 36 35 36 36 35 37 51 56 57 57 56 57 57 56 56 56 56
48 49 49 49 50 49 49 49 50 50 51 52 51 51 51 51 51 51 51 50 49 48 45 41 38 36 35 35 35 35 38 48 52 55 56 57 57 59 58 53 53 56
47 47 47 48 48 48 49 49 50 50 50 51 50 49 49 50 51 50 49 48 47 46 44 41 38 37 35 35 35 35 38 44 47 50 57 57 56 57 54 49 46 49
46 47 47 47 47 48 48 48 48 49 50 51 51 50 50 50 50 47 47 48 49 49 47 42 38 37 35 35 35 35 37 42 47 47 45 44 47 47 51 48 43 41
46 46 46 47 46 47 48 48 49 49 50 50 51 51 50 47 46 44 45 46 48 49 48 44 41 38 36 35 35 35 37 43 43 40 38 39 40 40 44 49 44 40

ECMWFNIL_sfc_dewp_057.txt.gz
Dewpoint
63 63 64 64 63 63 63 63 62 61 61 61 61 61 61 62 61 62 62 62 61 62 61 61 61 62 63 63 63 63 62 62 62 62 62 61 61 62 61 62 61 61
63 63 63 63 62 61 62 63 62 61 61 61 61 61 62 61 61 61 61 61 62 61 61 61 61 61 62 62 62 62 63 62 62 63 62 61 61 62 62 61 61 61
61 62 63 62 62 61 61 61 62 62 61 61 61 61 62 61 61 61 60 61 60 61 60 60 60 61 61 62 62 61 61 62 61 62 62 62 61 61 60 61 61 61
60 61 62 62 62 61 61 61 62 62 61 61 61 61 61 61 61 60 60 63 60 60 60 61 60 60 60 61 61 61 62 61 62 62 62 62 62 62 62 62 61 61
61 60 60 61 61 61 61 61 61 61 61 61 61 60 60 61 60 59 61 60 59 59 60 59 59 59 60 60 60 61 61 61 61 61 62 62 62 62 62 62 61 61
61 61 60 61 61 61 61 61 62 60 60 60 59 59 60 59 58 59 60 59 59 59 59 58 59 58 59 59 60 61 61 61 61 61 61 61 62 62 63 62 61 61
61 61 60 60 60 60 60 61 61 60 60 60 59 59 59 58 58 58 59 58 58 58 58 58 58 56 58 58 60 60 60 60 61 61 60 60 61 61 61 62 62 62
61 60 61 60 60 60 60 61 60 59 59 59 59 59 59 58 57 58 58 58 58 57 58 58 56 57 58 56 57 56 56 59 60 59 59 59 59 59 59 60 60 61
61 61 61 61 61 61 60 60 59 59 58 58 58 58 58 58 57 57 57 56 57 56 56 55 56 56 56 58 56 57 56 57 57 56 56 57 56 57 57 58 59 59
61 61 61 61 61 61 60 60 59 58 58 57 56 57 57 58 57 57 56 56 54 55 54 53 54 54 55 57 56 56 55 56 56 57 56 55 55 55 56 57 58 59
60 60 60 60 60 61 60 59 59 59 58 56 56 56 57 57 57 56 55 55 54 55 52 53 52 53 54 56 55 56 56 55 55 55 55 55 56 55 58 58 59 59
60 59 60 59 60 60 60 59 59 59 58 56 56 56 57 56 56 55 55 54 54 52 51 50 50 52 53 54 55 55 55 54 54 55 55 53 52 55 56 58 59 58
60 60 59 59 60 60 60 59 59 58 57 57 57 56 54 54 55 54 54 52 53 52 51 50 49 49 49 51 52 54 54 54 54 54 54 53 50 54 56 58 59 59
60 59 59 60 60 61 60 59 59 58 57 57 56 54 53 53 52 52 54 53 50 50 49 48 46 46 46 46 49 52 55 53 53 53 54 53 54 55 57 58 59 58
60 60 60 59 59 59 59 59 58 58 58 56 54 53 55 54 53 52 53 52 50 49 48 47 46 45 44 45 46 49 52 54 54 53 53 51 51 55 58 59 59 59
60 60 59 59 59 59 58 58 59 58 56 53 53 54 53 52 53 54 52 49 48 46 45 44 43 43 42 42 43 47 51 52 53 53 53 53 51 54 57 58 59 58
60 59 59 58 58 58 58 57 57 57 55 53 55 56 55 54 54 51 49 48 46 43 41 41 40 40 39 38 39 42 49 52 52 54 52 52 53 53 53 54 55 55
58 58 58 58 58 58 58 56 57 58 57 56 55 54 53 51 50 48 46 44 42 40 40 39 38 39 37 38 38 39 44 51 53 54 54 51 50 51 51 50 51 51
57 57 56 56 56 56 56 58 58 57 56 55 54 52 50 48 46 45 43 41 39 37 36 36 36 37 36 37 37 37 38 46 53 55 54 51 52 52 52 51 50 50
54 54 54 54 55 55 56 57 57 56 56 55 54 51 49 47 44 43 41 40 38 36 35 35 35 37 36 36 36 37 39 45 52 55 53 53 52 52 53 53 54 54
52 52 52 52 52 52 53 53 54 54 54 54 54 52 49 47 46 43 42 41 38 36 34 33 35 36 35 35 36 37 41 47 52 54 53 54 55 55 56 55 54 53
49 50 50 49 50 50 50 51 51 51 51 52 51 51 51 50 49 47 45 43 41 37 34 32 33 35 35 35 36 38 42 47 48 51 52 54 51 50 52 54 54 50
47 48 48 48 49 49 49 49 49 49 50 50 50 50 49 49 49 48 46 43 41 38 34 32 33 35 35 36 38 39 43 46 45 44 48 50 45 43 43 45 44 42
46 46 46 47 47 47 48 48 49 49 49 49 49 48 48 48 48 48 47 43 40 37 34 32 33 36 35 36 38 39 41 42 41 41 41 46 45 42 40 41 42 45
46 46 46 46 46 47 47 47 48 48 49 49 49 48 47 48 48 49 48 46 42 39 39 34 34 37 36 35 36 37 38 35 36 37 39 40 44 43 40 38 37 39
46 46 46 46 46 46 47 47 48 48 49 49 49 49 48 48 48 48 47 47 45 43 39 37 36 37 37 36 36 36 37 35 36 37 39 40 41 44 42 39 38 37

ECMWFNIL_sfc_dewp_060.txt.gz
Dewpoint
62 62 62 61 62 62 62 62 62 63 62 62 62 61 61 61 62 62 61 61 61 61 61 61 61 62 62 63 63 62 62 62 62 61 61 61 60 60 60 60 59 60
61 62 61 62 61 61 62 62 62 62 62 62 61 62 61 62 61 61 61 61 61 61 61 61 61 62 62 62 62 62 62 61 61 62 61 60 60 60 60 60 60 59
60 61 62 62 62 62 63 62 62 62 62 62 62 61 61 61 61 61 61 61 61 60 60 61 61 62 62 62 61 62 61 60 61 61 61 61 60 60 60 60 59 60
60 60 61 62 62 62 62 62 62 62 61 61 61 61 61 61 61 60 60 63 60 60 60 60 61 61 61 61 61 60 60 60 60 61 61 60 61 60 60 60 60 60
61 60 60 61 61 61 61 62 61 61 61 60 61 61 60 60 60 59 60 60 60 59 59 59 60 60 61 61 60 60 60 60 60 60 60 60 60 60 60 60 60 59
61 61 61 60 61 61 61 61 62 61 61 60 61 60 60 60 59 59 59 59 59 59 59 59 59 59 60 60 60 60 60 59 59 60 60 60 60 60 61 60 60 59
61 61 61 61 61 61 60 59 60 61 61 60 60 60 60 59 59 59 59 58 58 58 58 57 58 58 59 59 59 59 60 60 60 60 60 60 60 60 61 60 60 60
61 61 60 60 60 60 59 60 61 62 61 60 59 59 59 58 59 59 58 58 58 57 57 57 56 58 58 59 59 59 58 60 60 60 60 60 60 60 60 61 60 60
61 61 60 60 60 59 60 61 61 62 61 59 59 59 58 58 59 58 58 58 57 57 57 56 56 57 58 58 58 58 58 58 59 59 59 58 59 60 60 60 59 60
61 61 61 60 60 59 60 61 61 61 61 60 59 58 57 57 58 58 58 57 57 57 56 55 55 56 57 57 57 57 57 57 58 58 58 58 58 58 58 58 59 58
61 61 60 60 59 59 60 60 60 61 61 59 59 58 57 57 57 57 57 57 57 56 54 54 54 55 56 56 56 56 55 56 57 56 57 57 57 57 59 58 58 58
61 60 60 59 58 59 60 60 60 60 61 59 58 58 57 56 56 56 56 55 55 54 53 52 52 53 55 55 55 55 55 54 55 55 55 55 55 56 57 58 58 57
60 59 60 59 59 59 60 60 60 60 60 59 59 58 56 56 55 55 55 54 53 51 50 49 49 49 51 52 53 54 54 53 54 54 53 53 54 56 57 58 57 57
59 59 59 59 59 59 60 60 60 60 60 59 59 57 55 55 54 53 52 50 49 48 48 48 47 47 47 49 51 53 53 53 53 53 53 54 55 57 57 57 57 57
59 59 59 59 59 59 59 59 60 60 59 59 58 56 55 53 52 50 49 48 47 46 46 46 45 45 45 46 49 51 52 53 52 52 53 55 56 56 56 56 55 55
59 59 59 59 58 59 59 58 59 59 58 57 54 53 52 51 49 48 46 45 44 43 43 43 43 43 43 43 45 48 51 52 52 52 52 54 56 56 56 56 56 55
59 59 59 58 58 59 58 58 58 58 57 56 54 53 51 49 47 45 44 43 42 41 41 40 41 40 39 38 40 45 51 52 52 52 52 54 56 56 56 56 55 54
58 58 58 58 58 58 57 57 57 56 56 54 52 49 48 46 44 43 42 41 40 38 38 39 38 39 37 38 38 42 49 53 53 52 51 53 55 55 55 54 52 51
57 57 57 57 57 57 57 57 56 55 54 52 48 46 44 43 41 40 39 39 37 36 36 36 36 38 37 38 39 42 47 51 53 52 51 51 52 52 51 51 51 50
51 56 56 56 56 56 56 56 54 53 52 51 47 44 42 41 41 40 40 38 35 34 34 35 37 38 37 39 41 43 46 49 54 54 53 53 53 52 52 52 50 48
48 50 53 55 55 55 54 53 52 51 50 49 47 44 43 42 42 40 38 37 34 33 34 35 38 38 38 39 41 42 45 49 52 51 50 50 50 51 49 47 45 42
47 47 49 51 52 52 51 51 51 50 49 49 48 47 46 45 43 41 38 36 35 33 33 34 36 37 38 39 41 43 46 50 48 46 44 43 43 42 41 41 40 39
46 46 47 49 49 49 49 49 49 48 48 49 48 47 46 45 43 41 39 36 34 33 32 33 35 36 36 37 39 41 44 47 45 42 41 40 40 40 41 41 39 38
46 46 46 47 48 48 48 48 48 48 46 47 47 46 45 44 42 39 38 37 35 34 34 34 36 37 36 36 36 38 43 45 44 42 40 38 37 37 38 39 41 43
46 46 46 46 47 47 48 47 47 48 48 48 48 47 45 44 42 40 40 39 38 39 41 37 37 38 37 36 36 37 41 43 44 42 40 39 38 37 38 38 38 39
46 45 45 45 46 47 47 47 48 48 48 48 48 47 46 45 44 41 40 41 40 39 39 38 38 38 38 37 37 37 38 41 43 43 42 42 41 39 39 38 38 38

ECMWFNIL_sfc_dewp_063.txt.gz
Dewpoint
61 60 61 61 61 61 61 61 61 62 62 62 61 61 61 61 62 62 62 62 62 62 62 62 62 62 62 62 62 61 61 61 61 61 61 60 59 59 59 59 58 59
61 60 60 61 61 60 60 61 61 62 62 62 62 61 61 61 62 62 62 62 62 61 61 61 61 61 61 62 61 61 61 61 61 61 60 60 59 59 59 59 58 58
61 60 61 61 61 61 61 61 61 62 63 62 62 62 61 62 62 62 62 62 61 60 60 61 61 61 62 62 61 61 61 60 60 60 60 60 59 59 59 59 58 58
60 60 61 61 61 61 61 61 61 61 62 61 61 61 61 61 61 61 61 63 61 60 60 60 61 61 61 61 61 61 60 60 60 60 60 59 59 59 58 59 58 58
61 60 60 61 61 60 60 61 61 61 61 61 61 61 61 60 60 60 61 61 60 59 59 60 60 61 61 61 61 60 59 59 59 60 60 59 59 59 58 59 58 58
61 61 61 60 60 60 60 60 61 61 61 61 61 61 61 61 60 60 60 60 60 59 59 60 60 60 60 60 60 60 59 59 59 59 59 59 58 58 60 59 59 58
61 61 61 61 60 60 60 61 61 61 61 61 61 61 61 60 60 59 60 60 59 59 59 59 59 59 59 60 59 59 59 59 59 59 59 58 59 58 59 59 59 59
61 61 61 61 60 60 60 60 61 61 60 61 61 61 61 61 60 59 59 59 59 59 58 59 59 59 59 59 59 58 58 58 59 59 59 59 58 59 59 59 58 58
61 61 61 61 59 60 60 60 60 60 61 61 61 60 60 60 60 59 59 59 59 58 58 58 58 59 59 59 59 58 58 58 59 59 59 59 59 59 59 59 58 58
61 62 61 61 59 59 60 60 60 61 61 61 61 60 60 60 60 59 58 58 58 57 57 57 57 58 58 59 59 58 58 58 58 59 59 59 59 59 59 59 59 58
60 61 61 61 59 59 60 60 60 60 61 61 61 60 59 59 60 59 57 58 57 57 56 56 57 58 58 58 58 58 58 58 58 58 58 58 58 59 60 59 58 59
60 61 61 60 59 59 59 60 60 60 60 61 60 60 59 59 59 58 57 57 57 56 55 55 55 57 57 57 56 56 56 57 57 57 57 57 57 57 58 58 58 58
59 60 60 60 59 59 59 60 60 60 60 60 60 59 59 59 59 58 57 57 56 54 53 53 54 55 55 55 55 54 55 54 55 56 55 55 56 56 57 57 57 57
58 58 59 60 60 60 59 59 59 59 60 60 60 59 59 58 58 57 55 53 51 50 50 50 50 50 50 51 53 54 53 53 54 54 54 53 54 55 56 57 57 56
55 58 58 60 60 60 59 59 59 59 59 59 59 59 58 58 56 54 51 48 48 47 47 47 48 47 47 49 52 51 52 53 53 53 53 53 53 53 54 54 54 54
51 56 59 59 59 59 59 59 59 58 58 59 58 57 56 55 53 52 49 47 46 45 45 46 45 45 45 45 47 51 51 52 52 52 53 54 55 54 54 55 54 54
49 52 58 58 58 59 59 59 58 58 58 58 57 55 54 53 53 51 48 46 44 44 43 43 42 42 40 39 43 48 51 51 52 52 52 54 55 55 54 53 51 50
48 50 55 58 58 58 58 58 58 58 57 57 55 53 53 51 50 48 46 44 43 42 41 40 41 41 38 39 42 46 49 51 52 53 53 53 54 54 53 51 49 48
47 49 51 57 58 58 58 58 58 57 56 53 52 52 50 47 45 45 44 43 42 40 39 40 40 40 38 41 43 46 46 49 51 52 52 52 53 52 51 49 48 46
47 47 49 51 57 57 56 57 56 55 53 51 50 49 47 43 42 41 41 41 41 41 41 41 41 40 40 42 44 44 45 48 52 52 52 52 51 50 49 47 45 44
46 47 47 49 50 54 56 55 53 50 49 48 48 47 46 42 39 38 38 39 40 41 41 40 39 38 41 43 44 44 45 47 50 49 47 46 44 43 42 40 40 40
46 46 46 47 48 49 50 50 49 47 46 47 46 45 44 43 39 38 38 38 40 40 40 39 38 38 41 43 43 43 43 47 45 44 42 41 40 39 39 39 39 38
46 46 46 46 47 47 47 47 47 46 46 46 44 44 43 42 38 37 37 37 38 39 39 39 39 38 39 41 41 41 43 43 42 41 40 39 39 40 40 40 39 36
45 45 45 45 46 46 47 47 46 46 45 45 43 42 41 41 40 38 38 38 37 38 39 39 39 39 38 39 41 41 43 42 40 38 37 36 37 37 38 39 42 43
45 45 45 45 45 45 47 47 46 45 44 44 43 43 42 42 43 41 40 39 39 39 41 38 39 39 38 38 39 41 42 41 39 38 37 36 37 37 38 38 38 40
44 44 45 45 45 45 46 47 46 45 44 44 44 44 43 43 43 43 42 42 42 41 40 39 38 38 39 38 39 39 41 43 41 39 38 38 37 37 38 38 39 38

ECMWFNIL_sfc_dewp_066.txt.gz
Dewpoint
61 61 62 62 61 61 61 61 62 62 61 61 61 62 62 62 62 62 63 62 62 62 62 62 62 62 62 62 62 62 62 62 61 61 61 61 61 60 60 59 60 60
61 62 62 62 61 61 61 61 61 62 62 61 62 61 61 61 61 61 62 62 62 62 62 62 62 62 62 62 61 61 61 61 61 61 61 61 61 60 60 60 60 60
60 60 61 61 62 61 61 61 61 61 62 62 61 62 61 61 61 61 61 61 61 62 62 62 62 62 62 62 62 62 61 61 61 61 61 61 60 60 60 60 60 59
60 60 60 60 61 61 61 61 61 61 61 61 61 61 61 61 61 61 61 63 62 62 61 62 62 61 61 61 61 61 61 61 61 61 61 60 60 60 60 60 60 59
59 60 60 61 61 61 60 60 61 61 61 61 61 61 61 61 61 61 61 62 62 61 60 61 61 61 61 61 61 61 61 60 60 61 60 60 60 60 59 60 59 59
59 60 60 60 60 60 60 60 61 61 61 61 60 61 61 61 61 61 61 61 61 61 60 60 60 61 61 61 61 61 60 60 60 60 60 60 59 60 59 60 60 59
59 59 59 60 60 60 60 60 61 61 61 61 61 61 61 61 61 60 60 60 60 59 58 59 60 60 61 61 60 60 60 60 60 60 60 59 60 59 60 60 60 60
60 60 60 61 60 60 60 60 61 61 61 61 61 61 61 61 60 60 60 60 59 59 59 59 59 60 60 60 60 60 59 60 60 60 60 59 60 60 60 60 60 60
60 61 61 61 60 60 60 60 60 61 61 61 61 61 61 61 60 60 60 60 59 59 59 59 60 60 60 60 60 60 59 59 60 60 60 59 59 60 60 60 59 60
59 60 61 61 61 60 60 60 60 60 61 61 61 61 60 60 60 60 59 59 59 59 59 59 59 60 59 60 60 60 59 59 59 59 60 60 60 60 60 59 59 59
55 57 60 61 61 60 60 60 60 60 60 60 60 60 60 60 60 60 59 59 59 59 59 58 59 59 59 59 59 59 59 59 59 59 59 59 60 60 60 60 59 59
53 54 56 58 60 60 60 60 60 60 60 60 60 60 59 60 59 60 59 59 59 59 59 58 58 59 59 59 59 58 59 59 59 59 59 59 59 59 60 60 60 60
51 52 54 56 59 60 60 60 60 60 60 60 60 60 59 59 59 59 59 59 59 59 58 57 57 58 59 59 58 58 58 58 58 58 58 58 58 59 60 60 60 60
49 50 52 55 57 60 60 59 59 60 60 60 60 60 59 59 59 59 59 59 59 58 58 56 56 57 57 57 57 57 57 57 58 58 58 58 57 58 58 58 58 58
48 49 51 52 56 59 60 60 59 59 60 60 60 59 59 59 59 58 57 56 55 55 53 53 54 55 55 56 56 56 56 56 56 57 57 57 56 56 56 56 56 56
47 48 49 51 54 57 59 60 59 59 59 60 60 59 59 58 58 56 56 54 52 51 50 51 52 51 52 51 52 55 54 54 55 55 56 56 55 55 55 55 55 55
46 47 48 49 51 55 59 59 59 59 59 59 59 58 58 58 57 54 54 53 52 50 49 49 48 47 44 43 46 49 53 54 54 54 54 55 55 56 54 52 51 51
45 46 47 48 50 51 56 59 59 59 59 59 58 57 56 56 56 54 53 52 51 50 49 47 46 44 39 41 43 45 49 53 53 54 54 55 55 55 53 51 50 49
45 46 46 47 48 50 53 57 58 58 58 58 57 56 55 55 54 53 51 50 49 48 47 45 44 40 39 40 42 44 45 50 53 54 55 55 54 52 51 49 48 48
45 45 46 46 47 48 50 51 56 58 57 56 54 53 52 52 51 50 48 48 48 47 46 44 44 41 40 41 43 43 44 49 53 53 53 52 51 50 49 48 48 48
44 45 45 46 46 47 47 47 47 48 50 50 50 50 49 49 49 47 46 46 45 45 45 44 43 41 41 41 42 43 45 47 51 49 47 45 43 43 44 44 44 46
44 45 45 45 46 45 45 45 45 45 45 45 46 45 45 45 45 45 44 43 43 43 44 44 44 40 41 42 43 43 44 48 46 44 43 41 41 41 40 40 41 43
43 44 45 45 45 44 44 44 44 43 44 44 43 43 43 42 43 43 43 43 42 43 44 43 43 41 41 41 41 42 43 44 43 42 41 41 41 41 41 40 39 38
43 44 44 45 44 44 44 44 44 44 43 44 43 42 42 42 43 43 43 43 42 42 43 43 42 41 39 40 41 41 43 43 41 40 39 39 38 39 40 41 43 43
42 43 44 44 44 44 44 44 44 44 44 44 44 43 43 43 43 43 43 43 43 42 43 42 41 41 39 39 39 40 42 41 39 37 37 37 37 38 38 38 38 40
42 42 43 44 44 44 44 44 44 44 43 43 43 43 43 43 42 42 41 42 42 42 42 42 40 40 39 38 39 39 39 40 39 37 36 36 36 37 38 39 39 39

ECMWFNIL_sfc_dewp_069.txt.gz
Dewpoint
63 62 63 62 62 63 63 64 64 63 63 63 62 62 63 65 63 64 64 64 65 65 65 64 64 64 64 64 63 63 63 62 63 64 63 62 63 64 64 63 63 62
62 63 62 63 63 63 64 64 63 63 63 63 63 63 64 64 63 63 64 64 64 64 64 64 64 64 64 63 63 63 63 63 63 62 64 64 64 64 64 64 64 63
62 63 62 62 63 63 63 64 64 63 64 63 63 63 63 64 63 63 63 63 64 64 64 64 64 64 64 63 63 63 63 63 63 63 63 64 64 63 63 64 64 63
61 61 61 62 62 62 63 63 63 63 63 63 63 63 63 63 63 63 62 63 63 64 64 63 64 64 63 63 63 63 63 63 63 64 64 64 64 63 63 63 63 62
60 61 61 61 62 62 63 62 62 63 62 63 63 63 63 63 63 63 63 63 63 63 63 63 63 64 63 63 63 63 63 63 64 63 63 63 63 63 63 62 62 63
60 60 60 61 61 61 62 62 62 62 62 63 63 63 63 63 63 63 63 63 64 64 63 63 63 63 63 63 63 63 63 63 64 63 62 62 62 62 61 62 62 63
58 59 61 61 61 62 61 62 62 62 62 63 62 62 63 63 63 62 62 62 62 63 62 62 62 62 63 63 62 63 62 63 62 62 62 62 62 61 62 62 62 62
56 57 58 60 61 62 62 61 61 62 62 62 62 62 63 62 62 63 62 62 62 62 62 62 62 62 62 62 62 62 62 63 62 62 61 62 63 62 62 62 64 62
54 55 56 58 59 62 62 62 62 62 62 62 62 63 63 62 62 62 62 62 62 62 61 61 61 61 62 62 61 61 62 62 63 62 62 63 63 62 62 62 63 63
51 52 54 55 56 59 60 61 62 62 62 62 62 62 62 63 62 62 62 62 61 61 61 61 61 61 61 61 61 61 61 61 62 63 63 63 63 62 61 62 62 63
50 50 51 52 53 55 57 59 61 62 63 61 62 62 62 62 62 62 61 61 61 61 60 61 61 61 61 61 62 62 62 62 63 62 63 63 63 63 63 62 63 63
49 49 50 51 52 53 54 57 59 61 61 62 62 61 62 62 62 62 61 61 61 61 60 60 61 61 61 61 62 62 63 63 63 63 63 63 63 63 63 63 63 62
48 48 49 50 51 52 53 55 58 60 60 61 61 61 61 61 61 61 61 61 61 61 61 61 60 61 61 61 62 62 62 62 63 63 63 63 62 60 61 62 63 62
47 48 48 49 50 51 52 54 57 59 60 60 61 61 61 61 61 61 61 61 61 60 61 61 61 61 61 61 61 61 62 62 62 63 62 63 62 61 61 62 63 63
46 47 48 48 49 50 51 52 55 58 60 60 60 61 61 61 61 61 61 60 60 61 60 60 60 60 61 61 61 61 61 62 62 62 62 62 62 61 61 62 61 62
46 46 46 47 48 49 50 51 53 56 58 59 60 60 60 61 60 61 60 60 60 60 60 60 60 60 58 54 56 60 61 61 62 62 62 62 61 61 61 61 60 61
45 45 46 46 47 48 49 49 51 55 58 59 60 60 60 61 61 60 60 60 60 59 59 59 59 58 51 48 50 52 59 61 61 62 62 61 61 61 60 60 60 60
44 45 45 45 46 46 47 48 49 50 52 55 59 60 60 61 61 60 60 60 60 59 59 59 59 51 46 47 47 48 53 60 61 61 62 61 61 60 60 59 59 59
44 44 44 44 45 45 46 46 47 47 48 49 51 56 60 59 59 59 59 59 59 58 58 58 56 44 43 45 46 46 48 55 59 60 60 60 60 60 58 58 58 57
43 44 44 44 44 44 44 44 45 45 47 48 49 50 53 57 58 58 57 56 57 56 57 55 52 42 40 42 43 44 45 51 58 59 59 59 59 59 58 57 57 56
43 43 44 43 43 43 44 43 44 44 45 45 46 46 46 48 50 52 53 53 53 53 52 51 48 40 40 41 42 43 45 51 58 58 57 57 57 57 57 57 57 56
43 43 44 43 43 43 43 43 43 44 44 45 45 45 45 45 46 47 48 48 49 50 49 48 47 39 40 41 42 44 46 53 54 53 52 52 52 52 53 54 55 55
43 43 43 43 42 42 42 42 43 43 44 44 44 44 44 44 44 44 45 46 47 47 46 45 44 40 40 41 42 43 47 50 49 47 47 48 47 47 48 50 52 53
43 43 43 43 42 42 42 42 43 43 43 43 43 43 43 43 44 44 44 45 45 45 44 44 43 41 39 40 42 43 46 47 46 45 44 44 44 45 46 47 47 46
43 43 44 43 42 43 43 43 43 42 43 43 43 43 42 43 43 43 43 43 44 44 44 43 42 41 38 38 39 41 46 46 43 42 41 41 41 42 42 43 43 42
43 43 44 44 44 43 43 43 43 43 43 43 43 43 43 44 43 42 42 42 42 42 42 42 41 41 40 38 38 38 39 46 43 42 40 40 40 40 41 42 42 41

ECMWFNIL_sfc_dewp_072.txt.gz
Dewpoint
63 63 63 62 62 62 62 62 62 63 63 64 64 64 64 65 64 65 65 65 65 65 65 65 65 65 64 65 66 65 65 66 65 64 64 64 64 64 65 64 64 64
62 63 62 63 62 62 62 64 64 63 64 64 64 65 65 65 65 65 65 65 65 65 65 65 64 65 65 64 64 65 66 65 64 64 64 63 64 64 65 64 64 63
61 62 63 62 63 64 65 64 64 63 63 64 64 65 65 64 64 64 65 64 64 65 65 65 65 65 65 64 65 64 64 64 64 63 63 63 64 63 66 64 64 65
60 61 62 62 62 63 64 63 63 64 64 63 64 64 64 64 64 64 64 64 64 64 65 65 65 65 64 64 65 65 64 64 65 64 64 64 63 66 63 64 63 62
58 59 60 61 62 62 63 63 63 63 63 63 63 64 64 64 64 64 64 64 64 63 64 64 64 65 65 65 65 64 65 65 64 65 63 63 65 64 64 64 63 63
56 56 58 59 61 62 62 62 62 62 62 63 63 63 63 64 64 64 63 63 63 63 63 63 64 64 63 64 64 64 64 63 64 64 63 62 63 63 63 63 64 63
55 55 56 57 59 60 62 63 62 62 62 63 62 63 63 63 63 63 62 62 63 62 62 63 63 64 64 64 63 63 63 63 63 63 64 64 63 62 63 63 63 63
54 54 54 55 57 58 60 61 62 63 63 62 62 62 63 62 62 63 63 63 62 62 62 62 63 62 63 64 63 63 63 62 63 63 62 63 61 61 61 63 64 63
52 53 54 55 55 56 57 57 59 61 63 63 62 62 63 63 63 63 63 63 62 63 62 62 62 62 63 63 63 62 62 62 63 63 63 62 62 62 61 61 62 62
50 51 53 53 54 54 55 56 57 58 61 63 63 63 61 63 63 63 63 63 63 62 62 62 62 62 63 62 62 62 61 62 62 63 63 63 62 61 61 62 62 63
50 50 52 52 53 53 54 54 56 57 59 60 62 63 62 63 63 63 63 62 62 62 62 61 62 62 62 62 63 63 62 62 62 62 63 62 61 61 63 61 62 62
49 50 50 51 51 52 53 54 55 56 57 60 61 62 62 63 63 62 62 61 61 61 62 61 61 61 61 62 61 61 62 62 63 63 63 62 62 62 62 60 61 61
48 49 49 49 50 51 52 52 53 55 56 57 60 61 61 62 62 61 62 62 62 62 61 62 61 61 62 62 61 61 62 62 63 64 63 63 62 60 60 61 62 62
47 48 47 47 49 49 50 51 52 53 54 57 58 60 61 61 61 61 61 61 62 62 63 61 61 61 61 61 61 62 62 63 62 61 62 62 62 61 60 61 61 62
47 47 48 47 47 47 48 49 50 51 52 53 56 58 60 61 61 61 61 61 61 62 62 62 62 62 61 62 62 62 62 62 62 63 62 62 61 61 63 63 62 63
45 46 45 46 46 46 46 48 48 49 50 51 52 54 57 59 59 60 61 61 61 60 62 62 62 61 60 55 56 61 62 62 63 63 62 61 61 62 63 62 63 63
44 44 45 45 45 45 46 46 46 48 48 49 50 52 53 55 59 59 60 61 60 60 61 62 62 61 55 50 51 53 60 64 64 63 61 61 61 62 62 62 63 62
44 44 44 45 45 44 44 45 45 46 46 47 48 49 51 53 54 56 59 61 61 60 61 61 61 56 50 48 49 49 53 64 64 61 61 61 61 62 61 62 63 62
43 43 43 43 44 44 44 44 44 44 45 46 46 48 49 49 50 51 53 58 60 59 60 61 62 50 46 47 47 47 48 55 62 62 62 62 61 59 60 61 61 61
43 43 43 43 43 44 44 43 44 44 45 45 46 46 47 47 48 48 50 51 55 58 59 61 60 43 42 44 44 44 46 50 61 61 61 60 60 59 60 61 61 61
43 43 43 43 43 43 44 43 43 44 44 44 45 45 45 45 46 46 47 48 49 52 55 57 52 39 40 41 42 42 42 44 61 61 61 60 60 61 61 61 61 62
43 43 43 42 43 43 43 43 43 43 44 44 44 44 44 44 45 45 45 45 46 48 50 51 51 39 38 40 40 41 42 54 60 61 60 60 60 60 60 60 60 61
43 43 42 42 42 42 42 43 43 43 43 43 43 43 43 43 43 43 43 43 44 44 45 47 48 42 38 40 40 40 43 56 60 57 57 56 57 58 58 58 59 59
42 42 42 42 42 42 41 42 42 42 42 42 42 42 42 42 42 42 42 42 42 43 43 45 45 43 38 38 42 41 47 57 57 56 54 53 52 53 54 52 50 48
42 42 42 42 42 43 43 42 41 41 42 42 42 41 41 41 41 40 41 41 42 42 43 43 43 43 40 38 38 39 49 55 55 52 51 50 49 48 49 49 48 45
41 42 42 42 42 43 43 43 43 42 42 41 41 41 41 41 41 40 40 41 41 41 42 42 42 42 41 38 39 40 43 52 52 51 46 47 47 46 47 47 46 45

ECMWFNIL_sfc_dewp_075.txt.gz
Dewpoint
62 62 62 62 63 62 62 62 63 64 65 65 64 65 64 64 64 65 65 66 65 65 65 65 65 66 66 65 65 64 65 65 66 65 65 66 66 65 64 65 65 65
60 60 61 61 62 63 63 64 65 63 65 66 65 66 65 65 65 65 65 65 65 65 64 65 65 65 64 64 64 66 66 66 64 64 64 64 65 64 65 65 65 64
57 58 59 59 61 63 64 64 64 64 65 66 66 65 64 63 66 64 64 65 65 65 64 65 65 65 65 65 65 65 66 66 64 64 65 64 64 64 65 64 64 64
56 57 57 58 59 60 62 63 63 63 64 64 65 65 64 64 64 63 64 64 64 64 65 65 65 65 65 65 66 66 65 65 65 66 64 64 64 64 64 65 63 63
55 55 56 57 57 58 59 60 62 63 63 63 64 63 63 64 64 63 63 64 65 64 64 64 64 64 65 65 65 64 65 65 64 65 64 65 65 65 64 63 62 64
54 53 54 55 56 57 57 58 59 61 62 63 63 64 64 64 62 63 65 64 65 64 64 63 63 64 65 64 64 64 64 63 64 62 62 63 64 64 64 64 63 63
53 53 54 54 55 56 57 57 57 58 59 61 62 63 63 63 63 62 61 62 64 62 62 62 63 64 64 65 64 64 65 63 63 63 63 62 63 64 63 63 63 62
53 53 53 53 54 55 55 55 56 57 58 59 60 61 63 62 62 62 63 63 62 62 61 61 62 62 63 63 64 64 62 64 63 64 62 62 64 63 63 63 63 62
52 52 52 53 53 54 54 54 55 56 56 58 58 59 61 63 62 62 63 62 63 63 63 63 64 63 63 63 63 62 63 62 64 62 64 63 63 62 61 62 62 62
51 51 52 51 52 52 53 53 54 55 55 56 57 58 59 61 62 61 61 62 62 61 62 63 61 64 64 64 63 63 62 62 62 63 62 61 62 62 62 61 61 62
51 51 51 51 51 51 52 52 53 53 54 54 55 56 58 59 60 61 62 61 63 62 61 62 62 62 62 63 65 64 63 63 62 61 62 62 63 63 63 62 61 61
49 49 49 50 50 50 51 51 52 52 52 53 53 54 56 58 59 60 62 62 61 61 61 61 62 62 62 62 62 62 62 62 62 63 62 62 62 62 62 62 62 61
48 48 49 50 50 49 50 50 50 51 50 50 52 52 53 55 56 58 59 62 62 62 62 62 62 61 62 63 62 62 62 61 62 63 63 61 62 62 63 62 62 62
47 48 48 48 48 48 48 49 48 49 49 50 50 50 51 52 53 54 56 59 61 63 63 62 61 61 61 61 62 62 63 63 62 63 63 63 64 63 63 63 62 63
47 47 47 47 47 47 47 47 47 48 48 48 49 49 50 50 51 52 53 54 56 62 62 62 61 61 62 63 63 63 63 62 62 62 62 62 61 62 61 62 62 62
45 46 45 46 46 46 46 46 46 47 47 47 47 48 48 49 49 50 50 51 52 55 60 62 61 62 60 55 54 62 63 62 63 63 62 63 63 62 62 62 61 62
44 44 44 44 45 45 46 45 45 46 46 46 47 47 47 47 48 48 48 49 50 51 53 57 60 61 54 50 49 49 59 63 62 62 62 62 62 60 62 62 61 61
44 43 43 43 44 43 44 44 45 45 45 45 46 46 46 47 47 46 47 47 48 48 50 53 57 53 45 45 47 47 49 59 63 63 60 61 62 61 61 62 62 62
43 42 42 43 43 43 44 44 44 44 44 44 45 46 46 45 45 45 46 46 46 46 47 49 54 43 40 40 40 41 43 50 61 63 62 63 62 61 62 62 62 62
42 42 42 42 43 43 43 43 43 43 44 44 45 45 44 44 45 44 44 44 44 44 45 46 50 44 40 39 39 39 40 43 57 61 63 62 62 61 61 62 62 62
42 42 42 42 42 42 43 42 42 43 43 43 43 43 43 43 43 43 43 43 43 43 43 44 46 42 40 39 38 39 39 41 54 60 62 61 61 61 61 62 61 62
41 41 42 41 42 42 42 42 42 43 43 43 43 43 43 43 43 42 42 42 42 42 43 42 43 41 40 39 38 38 38 47 53 58 60 61 60 60 62 61 61 62
40 40 41 41 41 41 41 42 42 43 43 42 42 42 42 42 42 42 42 41 41 42 42 41 42 41 39 38 38 38 40 48 52 57 60 61 62 62 62 62 58 60
39 39 40 40 40 40 41 42 42 42 42 43 42 41 41 41 42 41 41 42 41 41 41 41 41 41 39 38 37 38 39 47 53 57 59 60 60 59 58 53 50 47
38 39 39 39 39 40 41 41 41 41 41 42 42 42 42 41 41 41 41 41 42 41 42 41 40 40 39 37 37 38 41 49 54 58 59 58 56 56 55 54 51 46
38 38 39 38 38 39 39 40 41 41 40 40 41 40 41 41 41 41 41 41 41 41 41 41 40 39 39 37 37 38 39 46 55 55 54 53 52 54 52 49 48 46

ECMWFNIL_sfc_dewp_078.txt.gz
Dewpoint
57 58 58 58 59 60 61 61 63 63 64 63 63 64 64 66 65 65 64 64 64 64 65 65 65 65 65 65 65 65 65 65 64 64 64 64 64 65 64 64 64 64
57 57 57 57 58 59 59 60 60 61 63 64 63 64 65 64 66 66 65 64 63 64 64 65 65 65 65 65 65 65 64 64 64 64 64 64 64 64 64 64 64 64
56 56 57 56 57 57 58 58 59 60 61 62 63 63 64 65 65 65 65 65 64 64 64 64 64 64 64 64 65 65 64 64 63 64 64 64 63 64 64 64 64 64
55 55 56 56 56 56 56 56 57 58 58 59 59 61 62 63 63 64 65 64 63 64 64 64 64 64 63 63 64 64 63 64 64 64 64 63 64 64 64 64 64 64
54 53 54 54 55 55 56 56 55 56 56 57 58 59 60 62 63 62 63 64 64 63 63 63 63 63 64 64 63 63 63 63 63 63 63 63 63 63 64 64 64 64
53 52 52 53 54 54 54 54 54 55 55 56 57 58 59 60 61 62 62 62 63 63 63 63 63 63 64 64 63 64 63 63 64 64 64 63 63 63 63 64 63 63
53 53 53 52 53 54 54 54 54 54 55 56 56 57 57 57 58 60 62 62 62 62 62 62 63 63 64 63 63 63 64 64 64 63 63 63 63 63 64 63 63 62
52 51 52 51 52 52 52 52 52 54 54 54 54 54 55 56 56 58 60 62 62 62 61 62 62 62 63 63 63 63 62 63 63 63 62 62 62 62 63 63 63 62
51 50 50 51 51 51 51 51 51 52 52 52 52 53 53 54 55 56 57 58 59 62 62 62 62 61 63 63 62 62 61 62 63 62 62 62 62 62 62 63 63 62
49 49 50 50 50 50 50 50 50 50 51 51 51 51 51 52 54 54 55 55 57 59 61 61 62 62 61 62 63 62 62 62 63 62 62 62 62 62 62 63 62 62
49 49 49 49 49 49 50 49 49 49 49 49 49 49 49 50 50 51 52 53 54 55 56 58 61 61 61 61 62 62 62 62 62 62 62 63 62 62 62 62 63 62
48 48 48 48 48 48 49 48 48 48 48 48 48 47 48 49 49 49 50 50 50 51 54 56 57 59 61 61 61 62 62 62 62 63 62 62 62 62 62 62 62 62
47 47 47 47 47 47 47 47 47 47 46 46 47 47 47 47 47 47 48 49 49 49 51 52 54 56 59 53 52 56 60 62 62 61 61 62 62 62 62 62 62 62
46 46 46 46 46 46 46 46 46 46 46 46 46 46 46 46 46 46 46 47 47 47 47 49 52 55 47 47 46 47 49 54 61 61 62 61 62 62 62 62 62 62
45 46 45 45 45 45 45 45 45 45 45 45 45 45 47 45 45 45 45 45 45 46 46 47 49 52 47 45 44 44 46 48 53 60 61 61 61 62 62 62 62 62
43 44 43 44 44 44 44 44 44 44 45 44 44 44 44 45 44 44 44 44 44 44 44 46 46 48 47 43 42 42 43 45 49 54 60 61 60 60 60 61 61 62
42 42 43 43 43 43 43 43 43 43 43 43 44 44 44 44 43 43 43 43 43 43 43 44 45 46 42 40 39 40 41 43 46 50 56 60 61 61 61 61 61 61
42 42 42 42 42 42 42 42 43 43 43 42 43 43 43 44 43 43 43 42 43 42 42 43 43 44 39 39 39 38 40 41 44 49 53 58 61 61 61 60 60 62
40 41 41 41 41 42 42 42 42 42 42 42 42 43 43 42 42 43 42 42 42 42 41 42 42 41 39 38 38 38 38 39 42 47 52 55 59 61 60 60 60 60
40 40 40 40 41 41 42 41 41 42 42 43 43 42 42 42 42 42 42 42 41 41 41 41 41 40 38 38 38 37 37 38 42 47 52 55 57 59 61 61 60 60
39 39 39 40 40 40 41 40 42 42 41 42 42 42 42 42 42 42 42 42 41 41 40 40 41 39 38 38 37 37 37 38 44 50 52 55 57 59 60 61 60 60
38 38 39 38 38 39 39 40 41 41 41 42 42 42 42 42 42 42 42 42 42 41 41 40 40 39 38 38 38 37 37 42 45 49 51 53 56 58 60 60 60 61
37 37 38 38 38 38 38 40 40 40 41 41 41 41 41 41 41 41 41 42 42 41 42 40 40 40 38 38 38 37 38 42 46 49 51 53 55 57 59 60 60 61
37 37 37 38 37 37 38 39 40 40 40 41 40 40 40 40 40 40 40 41 41 42 42 41 40 40 39 38 38 38 39 43 46 49 52 53 56 54 52 51 50 48
38 37 37 37 36 38 39 38 38 39 39 40 40 39 40 40 40 39 39 40 40 41 43 41 41 40 39 38 38 38 39 41 43 43 46 47 48 50 49 48 48 47
38 38 39 38 36 37 38 38 38 38 39 39 39 38 38 39 39 39 39 39 40 39 40 40 40 40 40 38 38 38 38 40 41 41 42 44 44 44 45 44 45 45